Time,TemperatureF,DewpointF,PressureIn,WindDirection,WindDirectionDegrees,WindSpeedMPH,WindSpeedGustMPH,Humidity,HourlyPrecipIn,Conditions,Clouds,dailyrainin,SoftwareType,DateUTC
2013-10-04 00:00:00,76.8,65.4,29.63,SE,139,30.0,30.0,68,0.00,,---,0.01,VWS V14.01,2013-10-04 05:00:00,
2013-10-04 00:01:00,76.8,65.4,29.63,SSE,148,12.0,22.0,68,0.00,,---,0.00,VWS V14.01,2013-10-04 05:01:00,
2013-10-04 00:02:00,76.8,65.4,29.63,SSE,149,13.0,27.0,68,0.00,,---,0.00,VWS V14.01,2013-10-04 05:02:00,
2013-10-04 00:03:00,76.8,65.4,29.63,SSE,158,10.0,27.0,68,0.00,,---,0.00,VWS V14.01,2013-10-04 05:03:00,
2013-10-04 00:05:00,77.0,65.6,29.63,SE,146,14.0,27.0,68,0.00,,---,0.00,VWS V14.01,2013-10-04 05:05:00,
2013-10-04 00:06:00,76.8,65.4,29.63,SE,144,15.0,27.0,68,0.00,,---,0.00,VWS V14.01,2013-10-04 05:06:00,
2013-10-04 00:08:00,76.8,65.4,29.63,SSE,148,14.0,27.0,68,0.00,,---,0.00,VWS V14.01,2013-10-04 05:08:00,
2013-10-04 00:09:00,76.8,65.4,29.63,SSE,148,5.0,27.0,68,0.00,,---,0.00,VWS V14.01,2013-10-04 05:09:00,
2013-10-04 00:10:00,76.7,65.3,29.63,SSE,166,7.0,11.0,68,0.00,,---,0.00,VWS V14.01,2013-10-04 05:10:00,
2013-10-04 00:11:00,76.7,65.3,29.63,SSE,149,15.0,15.0,68,0.00,,---,0.00,VWS V14.01,2013-10-04 05:11:00,
2013-10-04 00:14:00,76.7,65.3,29.63,SSE,149,11.0,21.0,68,0.00,,---,0.00,VWS V14.01,2013-10-04 05:14:00,
2013-10-04 00:15:00,76.7,65.3,29.62,SE,142,12.0,21.0,68,0.00,,---,0.00,VWS V14.01,2013-10-04 05:15:00,
2013-10-04 00:17:00,76.7,65.3,29.62,SSE,155,10.0,23.0,68,0.00,,---,0.00,VWS V14.01,2013-10-04 05:17:00,
2013-10-04 00:18:00,76.7,65.3,29.62,SSE,150,19.0,25.0,68,0.00,,---,0.00,VWS V14.01,2013-10-04 05:18:00,
2013-10-04 00:19:00,76.7,65.3,29.62,SSE,162,18.0,25.0,68,0.00,,---,0.00,VWS V14.01,2013-10-04 05:19:00,
2013-10-04 00:20:00,76.7,65.3,29.62,SSE,148,14.0,16.0,68,0.00,,---,0.00,VWS V14.01,2013-10-04 05:20:00,
2013-10-04 00:22:00,76.7,65.3,29.62,SE,144,12.0,28.0,68,0.00,,---,0.00,VWS V14.01,2013-10-04 05:22:00,
2013-10-04 00:24:00,76.7,65.3,29.62,SSE,161,12.0,28.0,68,0.00,,---,0.00,VWS V14.01,2013-10-04 05:24:00,
2013-10-04 00:25:00,76.7,65.3,29.62,SSE,150,19.0,28.0,68,0.00,,---,0.00,VWS V14.01,2013-10-04 05:25:00,
2013-10-04 00:28:00,76.7,65.3,29.62,SE,145,9.0,28.0,68,0.00,,---,0.00,VWS V14.01,2013-10-04 05:28:00,
2013-10-04 00:29:00,76.7,65.3,29.62,SSE,157,12.0,28.0,68,0.00,,---,0.00,VWS V14.01,2013-10-04 05:29:00,
2013-10-04 00:30:00,76.7,65.3,29.62,SSE,153,11.0,28.0,68,0.00,,---,0.00,VWS V14.01,2013-10-04 05:30:00,
2013-10-04 00:31:00,76.5,65.2,29.62,SE,145,17.0,20.0,68,0.00,,---,0.00,VWS V14.01,2013-10-04 05:31:00,
2013-10-04 00:33:00,76.5,65.2,29.62,SSE,157,20.0,26.0,68,0.00,,---,0.00,VWS V14.01,2013-10-04 05:33:00,
2013-10-04 00:34:00,76.5,65.2,29.62,SSE,154,8.0,26.0,68,0.00,,---,0.00,VWS V14.01,2013-10-04 05:34:00,
2013-10-04 00:35:00,76.5,65.2,29.62,SSE,157,12.0,26.0,68,0.00,,---,0.00,VWS V14.01,2013-10-04 05:35:00,
2013-10-04 00:36:00,76.5,65.2,29.62,SE,141,16.0,26.0,68,0.00,,---,0.00,VWS V14.01,2013-10-04 05:36:00,
2013-10-04 00:38:00,76.5,65.2,29.62,SSE,158,10.0,26.0,68,0.00,,---,0.00,VWS V14.01,2013-10-04 05:38:00,
2013-10-04 00:39:00,76.5,65.2,29.62,SE,135,7.0,26.0,68,0.00,,---,0.00,VWS V14.01,2013-10-04 05:39:00,
2013-10-04 00:40:00,76.5,65.2,29.62,South,175,7.0,26.0,68,0.00,,---,0.00,VWS V14.01,2013-10-04 05:40:00,
2013-10-04 00:41:00,76.5,65.2,29.62,SE,142,9.0,17.0,68,0.00,,---,0.00,VWS V14.01,2013-10-04 05:41:00,
2013-10-04 00:42:00,76.5,65.2,29.62,SSE,154,6.0,19.0,68,0.00,,---,0.00,VWS V14.01,2013-10-04 05:42:00,
2013-10-04 00:43:00,76.5,65.2,29.62,SSE,165,6.0,20.0,68,0.00,,---,0.00,VWS V14.01,2013-10-04 05:43:00,
2013-10-04 00:44:00,76.3,65.0,29.62,SSE,156,14.0,20.0,68,0.00,,---,0.00,VWS V14.01,2013-10-04 05:44:00,
2013-10-04 00:45:00,76.3,65.0,29.62,SSE,152,11.0,23.0,68,0.00,,---,0.00,VWS V14.01,2013-10-04 05:45:00,
2013-10-04 00:47:00,76.3,65.0,29.62,SSE,150,9.0,23.0,68,0.00,,---,0.00,VWS V14.01,2013-10-04 05:47:00,
2013-10-04 00:48:00,76.3,65.0,29.62,SSE,150,12.0,23.0,68,0.00,,---,0.00,VWS V14.01,2013-10-04 05:48:00,
2013-10-04 00:49:00,76.3,65.0,29.62,SSE,155,9.0,23.0,68,0.00,,---,0.00,VWS V14.01,2013-10-04 05:49:00,
2013-10-04 00:50:00,76.3,65.0,29.62,SSE,148,20.0,23.0,68,0.00,,---,0.00,VWS V14.01,2013-10-04 05:50:00,
2013-10-04 00:52:00,76.3,65.0,29.62,SSE,160,10.0,22.0,68,0.00,,---,0.00,VWS V14.01,2013-10-04 05:52:00,
2013-10-04 00:53:00,76.3,65.4,29.62,SSE,150,21.0,22.0,69,0.00,,---,0.00,VWS V14.01,2013-10-04 05:53:00,
2013-10-04 00:54:00,76.3,65.4,29.62,SSE,151,6.0,23.0,69,0.00,,---,0.00,VWS V14.01,2013-10-04 05:54:00,
2013-10-04 00:55:00,76.3,65.4,29.62,South,174,10.0,23.0,69,0.00,,---,0.00,VWS V14.01,2013-10-04 05:55:00,
2013-10-04 00:57:00,76.3,65.4,29.62,SSE,162,14.0,23.0,69,0.00,,---,0.00,VWS V14.01,2013-10-04 05:57:00,
2013-10-04 00:59:00,76.3,65.4,29.62,SSW,194,14.0,24.0,69,0.00,,---,0.00,VWS V14.01,2013-10-04 05:59:00,
2013-10-04 01:00:00,76.3,65.4,29.62,SSE,151,20.0,25.0,69,0.00,,---,0.00,VWS V14.01,2013-10-04 06:00:00,
2013-10-04 01:01:00,76.3,65.0,29.62,SE,144,11.0,17.0,68,0.00,,---,0.00,VWS V14.01,2013-10-04 06:01:00,
2013-10-04 01:02:00,76.3,65.4,29.62,SSE,155,7.0,20.0,69,0.00,,---,0.00,VWS V14.01,2013-10-04 06:02:00,
2013-10-04 01:04:00,76.3,65.4,29.62,SSE,157,17.0,20.0,69,0.00,,---,0.00,VWS V14.01,2013-10-04 06:04:00,
2013-10-04 01:05:00,76.3,65.4,29.62,SE,132,12.0,20.0,69,0.00,,---,0.00,VWS V14.01,2013-10-04 06:05:00,
2013-10-04 01:06:00,76.1,65.2,29.62,SSE,155,17.0,21.0,69,0.00,,---,0.00,VWS V14.01,2013-10-04 06:06:00,
2013-10-04 01:08:00,76.1,65.2,29.62,South,189,14.0,21.0,69,0.00,,---,0.00,VWS V14.01,2013-10-04 06:08:00,
2013-10-04 01:09:00,76.1,65.2,29.62,SSE,147,16.0,21.0,69,0.00,,---,0.00,VWS V14.01,2013-10-04 06:09:00,
2013-10-04 01:10:00,76.1,65.2,29.62,SSE,150,12.0,21.0,69,0.00,,---,0.00,VWS V14.01,2013-10-04 06:10:00,
2013-10-04 01:11:00,76.1,65.2,29.62,South,174,12.0,16.0,69,0.00,,---,0.00,VWS V14.01,2013-10-04 06:11:00,
2013-10-04 01:13:00,76.3,65.4,29.62,SE,140,12.0,19.0,69,0.00,,---,0.00,VWS V14.01,2013-10-04 06:13:00,
2013-10-04 01:14:00,76.1,65.2,29.61,SSE,149,4.0,19.0,69,0.00,,---,0.00,VWS V14.01,2013-10-04 06:14:00,
2013-10-04 01:15:00,76.1,65.2,29.61,SE,145,15.0,24.0,69,0.00,,---,0.00,VWS V14.01,2013-10-04 06:15:00,
2013-10-04 01:16:00,76.1,65.2,29.61,SSE,158,7.0,24.0,69,0.00,,---,0.00,VWS V14.01,2013-10-04 06:16:00,
2013-10-04 01:18:00,76.1,65.2,29.61,SE,142,19.0,24.0,69,0.00,,---,0.00,VWS V14.01,2013-10-04 06:18:00,
2013-10-04 01:19:00,76.1,65.2,29.61,SSE,152,7.0,24.0,69,0.00,,---,0.00,VWS V14.01,2013-10-04 06:19:00,
2013-10-04 01:20:00,76.3,65.4,29.61,South,182,9.0,24.0,69,0.00,,---,0.00,VWS V14.01,2013-10-04 06:20:00,
2013-10-04 01:21:00,76.1,65.2,29.61,SSE,148,15.0,20.0,69,0.00,,---,0.00,VWS V14.01,2013-10-04 06:21:00,
2013-10-04 01:23:00,76.1,65.2,29.61,SSE,161,9.0,20.0,69,0.00,,---,0.00,VWS V14.01,2013-10-04 06:23:00,
2013-10-04 01:24:00,76.1,65.2,29.61,SSE,151,16.0,20.0,69,0.00,,---,0.00,VWS V14.01,2013-10-04 06:24:00,
2013-10-04 01:25:00,76.1,65.2,29.61,SSE,149,7.0,20.0,69,0.00,,---,0.00,VWS V14.01,2013-10-04 06:25:00,
2013-10-04 01:26:00,76.1,65.2,29.61,SSE,153,12.0,20.0,69,0.00,,---,0.00,VWS V14.01,2013-10-04 06:26:00,
2013-10-04 01:28:00,76.1,65.2,29.61,SSE,152,19.0,21.0,69,0.00,,---,0.00,VWS V14.01,2013-10-04 06:28:00,
2013-10-04 01:29:00,76.1,65.2,29.61,SSE,153,15.0,22.0,69,0.00,,---,0.00,VWS V14.01,2013-10-04 06:29:00,
2013-10-04 01:30:00,76.1,65.2,29.61,SSE,158,7.0,22.0,69,0.00,,---,0.00,VWS V14.01,2013-10-04 06:30:00,
2013-10-04 01:31:00,76.1,65.2,29.61,SSE,150,7.0,19.0,69,0.00,,---,0.00,VWS V14.01,2013-10-04 06:31:00,
2013-10-04 01:33:00,76.1,65.2,29.61,SSE,150,5.0,19.0,69,0.00,,---,0.00,VWS V14.01,2013-10-04 06:33:00,
2013-10-04 01:34:00,76.1,65.2,29.61,SSE,161,15.0,20.0,69,0.00,,---,0.00,VWS V14.01,2013-10-04 06:34:00,
2013-10-04 01:35:00,76.1,65.2,29.61,SSE,154,6.0,20.0,69,0.00,,---,0.00,VWS V14.01,2013-10-04 06:35:00,
2013-10-04 01:36:00,76.1,65.2,29.61,SSE,148,6.0,20.0,69,0.00,,---,0.00,VWS V14.01,2013-10-04 06:36:00,
2013-10-04 01:38:00,76.1,65.2,29.61,SSE,161,20.0,21.0,69,0.00,,---,0.00,VWS V14.01,2013-10-04 06:38:00,
2013-10-04 01:39:00,76.1,65.2,29.61,SSE,154,9.0,21.0,69,0.00,,---,0.00,VWS V14.01,2013-10-04 06:39:00,
2013-10-04 01:41:00,76.1,65.2,29.61,SSE,149,4.0,15.0,69,0.00,,---,0.00,VWS V14.01,2013-10-04 06:41:00,
2013-10-04 01:43:00,76.0,65.1,29.61,SSE,149,13.0,18.0,69,0.00,,---,0.00,VWS V14.01,2013-10-04 06:43:00,
2013-10-04 01:44:00,76.0,65.1,29.62,SSE,157,14.0,19.0,69,0.00,,---,0.00,VWS V14.01,2013-10-04 06:44:00,
2013-10-04 01:46:00,76.0,65.1,29.62,SSE,167,11.0,19.0,69,0.00,,---,0.00,VWS V14.01,2013-10-04 06:46:00,
2013-10-04 01:48:00,76.0,65.1,29.62,SE,144,13.0,22.0,69,0.00,,---,0.00,VWS V14.01,2013-10-04 06:48:00,
2013-10-04 01:49:00,76.0,65.1,29.62,SSE,153,14.0,22.0,69,0.00,,---,0.00,VWS V14.01,2013-10-04 06:49:00,
2013-10-04 01:51:00,76.0,65.1,29.62,SSE,148,3.0,16.0,69,0.00,,---,0.00,VWS V14.01,2013-10-04 06:51:00,
2013-10-04 01:53:00,75.8,64.9,29.62,SE,137,17.0,21.0,69,0.00,,---,0.00,VWS V14.01,2013-10-04 06:53:00,
2013-10-04 01:54:00,75.8,64.9,29.62,SE,138,6.0,23.0,69,0.00,,---,0.00,VWS V14.01,2013-10-04 06:54:00,
2013-10-04 01:56:00,75.8,64.9,29.62,SSE,155,11.0,23.0,69,0.00,,---,0.00,VWS V14.01,2013-10-04 06:56:00,
2013-10-04 01:57:00,75.8,64.9,29.62,SSW,195,20.0,23.0,69,0.00,,---,0.00,VWS V14.01,2013-10-04 06:57:00,
2013-10-04 01:59:00,75.8,64.9,29.62,SSE,154,18.0,23.0,69,0.00,,---,0.00,VWS V14.01,2013-10-04 06:59:00,
2013-10-04 02:01:00,76.0,65.1,29.62,SSE,150,12.0,22.0,69,0.00,,---,0.00,VWS V14.01,2013-10-04 07:01:00,
2013-10-04 02:02:00,76.0,65.1,29.62,SE,141,15.0,22.0,69,0.00,,---,0.00,VWS V14.01,2013-10-04 07:02:00,
2013-10-04 02:04:00,76.0,65.1,29.62,SSE,148,11.0,24.0,69,0.00,,---,0.00,VWS V14.01,2013-10-04 07:04:00,
2013-10-04 02:06:00,76.0,65.1,29.62,SSE,163,9.0,25.0,69,0.00,,---,0.00,VWS V14.01,2013-10-04 07:06:00,
2013-10-04 02:07:00,75.8,64.9,29.62,SE,137,10.0,25.0,69,0.00,,---,0.00,VWS V14.01,2013-10-04 07:07:00,
2013-10-04 02:09:00,75.8,64.9,29.62,SE,143,8.0,25.0,69,0.00,,---,0.00,VWS V14.01,2013-10-04 07:09:00,
2013-10-04 02:11:00,75.8,64.9,29.62,SSE,155,6.0,22.0,69,0.00,,---,0.00,VWS V14.01,2013-10-04 07:11:00,
2013-10-04 02:13:00,75.6,64.7,29.62,SSE,154,4.0,22.0,69,0.00,,---,0.00,VWS V14.01,2013-10-04 07:13:00,
2013-10-04 02:14:00,75.6,64.7,29.62,SSE,159,14.0,22.0,69,0.00,,---,0.00,VWS V14.01,2013-10-04 07:14:00,
2013-10-04 02:15:00,75.6,64.7,29.62,SE,142,17.0,22.0,69,0.00,,---,0.00,VWS V14.01,2013-10-04 07:15:00,
2013-10-04 02:16:00,75.6,64.7,29.62,SSE,148,5.0,22.0,69,0.00,,---,0.00,VWS V14.01,2013-10-04 07:16:00,
2013-10-04 02:18:00,75.6,64.7,29.62,SE,146,21.0,23.0,69,0.00,,---,0.00,VWS V14.01,2013-10-04 07:18:00,
2013-10-04 02:19:00,75.6,64.7,29.62,SSE,161,14.0,23.0,69,0.00,,---,0.00,VWS V14.01,2013-10-04 07:19:00,
2013-10-04 02:20:00,75.6,64.7,29.62,SE,144,12.0,24.0,69,0.00,,---,0.00,VWS V14.01,2013-10-04 07:20:00,
2013-10-04 02:21:00,75.6,64.7,29.62,SSE,159,15.0,23.0,69,0.00,,---,0.00,VWS V14.01,2013-10-04 07:21:00,
2013-10-04 02:22:00,75.6,64.7,29.62,SE,142,15.0,23.0,69,0.00,,---,0.00,VWS V14.01,2013-10-04 07:22:00,
2013-10-04 02:23:00,75.6,64.7,29.62,South,186,15.0,23.0,69,0.00,,---,0.00,VWS V14.01,2013-10-04 07:23:00,
2013-10-04 02:24:00,75.6,64.7,29.62,SSE,151,4.0,25.0,69,0.00,,---,0.00,VWS V14.01,2013-10-04 07:24:00,
2013-10-04 02:25:00,75.6,64.7,29.62,SSE,147,9.0,25.0,69,0.00,,---,0.00,VWS V14.01,2013-10-04 07:25:00,
2013-10-04 02:26:00,75.6,64.7,29.62,SSE,150,9.0,25.0,69,0.00,,---,0.00,VWS V14.01,2013-10-04 07:26:00,
2013-10-04 02:27:00,75.6,64.7,29.62,SE,140,12.0,25.0,69,0.00,,---,0.00,VWS V14.01,2013-10-04 07:27:00,
2013-10-04 02:28:00,75.6,64.7,29.62,SSE,154,14.0,25.0,69,0.00,,---,0.00,VWS V14.01,2013-10-04 07:28:00,
2013-10-04 02:29:00,75.6,64.7,29.62,SE,146,15.0,25.0,69,0.00,,---,0.00,VWS V14.01,2013-10-04 07:29:00,
2013-10-04 02:30:00,75.6,64.7,29.62,SSE,160,5.0,25.0,69,0.00,,---,0.00,VWS V14.01,2013-10-04 07:30:00,
2013-10-04 02:31:00,75.6,64.7,29.62,SSE,152,15.0,23.0,69,0.00,,---,0.00,VWS V14.01,2013-10-04 07:31:00,
2013-10-04 02:32:00,75.6,64.7,29.62,SE,141,19.0,23.0,69,0.00,,---,0.00,VWS V14.01,2013-10-04 07:32:00,
2013-10-04 02:33:00,75.6,64.7,29.62,SSE,158,9.0,23.0,69,0.00,,---,0.00,VWS V14.01,2013-10-04 07:33:00,
2013-10-04 02:34:00,75.6,64.7,29.62,SE,143,9.0,23.0,69,0.00,,---,0.00,VWS V14.01,2013-10-04 07:34:00,
2013-10-04 02:35:00,75.6,64.7,29.62,SSE,152,22.0,23.0,69,0.00,,---,0.00,VWS V14.01,2013-10-04 07:35:00,
2013-10-04 02:36:00,75.4,64.5,29.62,SSE,149,14.0,23.0,69,0.00,,---,0.00,VWS V14.01,2013-10-04 07:36:00,
2013-10-04 02:37:00,75.4,64.5,29.62,SSE,162,17.0,23.0,69,0.00,,---,0.00,VWS V14.01,2013-10-04 07:37:00,
2013-10-04 02:38:00,75.4,64.5,29.62,SSE,157,12.0,23.0,69,0.00,,---,0.00,VWS V14.01,2013-10-04 07:38:00,
2013-10-04 02:39:00,75.4,64.5,29.62,SSE,158,7.0,23.0,69,0.00,,---,0.00,VWS V14.01,2013-10-04 07:39:00,
2013-10-04 02:40:00,75.4,64.5,29.62,SSE,163,5.0,23.0,69,0.00,,---,0.00,VWS V14.01,2013-10-04 07:40:00,
2013-10-04 02:42:00,75.3,64.8,29.62,SSE,155,2.0,16.0,70,0.00,,---,0.00,VWS V14.01,2013-10-04 07:42:00,
2013-10-04 02:43:00,75.3,64.8,29.62,SSE,162,10.0,19.0,70,0.00,,---,0.00,VWS V14.01,2013-10-04 07:43:00,
2013-10-04 02:44:00,75.3,64.8,29.62,SSE,149,21.0,21.0,70,0.00,,---,0.00,VWS V14.01,2013-10-04 07:44:00,
2013-10-04 02:45:00,75.3,64.8,29.62,SSE,148,6.0,21.0,70,0.00,,---,0.00,VWS V14.01,2013-10-04 07:45:00,
2013-10-04 02:47:00,75.4,64.5,29.62,SSE,166,10.0,21.0,69,0.00,,---,0.00,VWS V14.01,2013-10-04 07:47:00,
2013-10-04 02:48:00,75.4,64.5,29.62,SSE,157,6.0,21.0,69,0.00,,---,0.00,VWS V14.01,2013-10-04 07:48:00,
2013-10-04 02:49:00,75.4,64.5,29.62,SSE,151,5.0,21.0,69,0.00,,---,0.00,VWS V14.01,2013-10-04 07:49:00,
2013-10-04 02:50:00,75.4,64.5,29.62,South,175,9.0,21.0,69,0.00,,---,0.00,VWS V14.01,2013-10-04 07:50:00,
2013-10-04 02:52:00,75.4,64.5,29.62,SSE,153,6.0,18.0,69,0.00,,---,0.00,VWS V14.01,2013-10-04 07:52:00,
2013-10-04 02:53:00,75.4,64.5,29.62,SSE,159,7.0,18.0,69,0.00,,---,0.00,VWS V14.01,2013-10-04 07:53:00,
2013-10-04 02:54:00,75.4,64.5,29.62,SSE,152,12.0,18.0,69,0.00,,---,0.00,VWS V14.01,2013-10-04 07:54:00,
2013-10-04 02:55:00,75.4,64.5,29.62,SSE,153,11.0,19.0,69,0.00,,---,0.00,VWS V14.01,2013-10-04 07:55:00,
2013-10-04 02:57:00,75.4,64.5,29.62,SSE,148,19.0,19.0,69,0.00,,---,0.00,VWS V14.01,2013-10-04 07:57:00,
2013-10-04 02:58:00,75.4,64.9,29.62,SSE,153,9.0,19.0,70,0.00,,---,0.00,VWS V14.01,2013-10-04 07:58:00,
2013-10-04 02:59:00,75.3,64.8,29.62,SE,146,6.0,21.0,70,0.00,,---,0.00,VWS V14.01,2013-10-04 07:59:00,
2013-10-04 03:00:00,75.3,64.8,29.62,SSE,158,12.0,21.0,70,0.00,,---,0.00,VWS V14.01,2013-10-04 08:00:00,
2013-10-04 03:02:00,75.3,64.8,29.62,SE,142,10.0,18.0,70,0.00,,---,0.00,VWS V14.01,2013-10-04 08:02:00,
2013-10-04 03:03:00,75.1,64.7,29.62,SSE,154,10.0,18.0,70,0.00,,---,0.00,VWS V14.01,2013-10-04 08:03:00,
2013-10-04 03:04:00,75.1,64.7,29.62,SSE,164,11.0,18.0,70,0.00,,---,0.00,VWS V14.01,2013-10-04 08:04:00,
2013-10-04 03:05:00,75.1,64.7,29.62,SSE,157,9.0,18.0,70,0.00,,---,0.00,VWS V14.01,2013-10-04 08:05:00,
2013-10-04 03:07:00,74.9,64.5,29.62,SSE,155,19.0,19.0,70,0.00,,---,0.00,VWS V14.01,2013-10-04 08:07:00,
2013-10-04 03:08:00,75.1,65.1,29.62,South,171,13.0,23.0,71,0.00,,---,0.00,VWS V14.01,2013-10-04 08:08:00,
2013-10-04 03:09:00,75.1,64.7,29.62,SSE,152,4.0,23.0,70,0.00,,---,0.00,VWS V14.01,2013-10-04 08:09:00,
2013-10-04 03:10:00,75.1,64.7,29.62,SSE,159,10.0,23.0,70,0.00,,---,0.00,VWS V14.01,2013-10-04 08:10:00,
2013-10-04 03:12:00,75.3,64.8,29.62,SSE,156,14.0,17.0,70,0.00,,---,0.00,VWS V14.01,2013-10-04 08:12:00,
2013-10-04 03:13:00,75.4,64.9,29.62,SSE,153,5.0,17.0,70,0.00,,---,0.00,VWS V14.01,2013-10-04 08:13:00,
2013-10-04 03:14:00,75.8,64.9,29.60,SSE,153,26.0,27.0,69,0.00,,---,0.00,VWS V14.01,2013-10-04 08:14:00,
2013-10-04 03:15:00,76.0,65.1,29.60,SSE,149,15.0,27.0,69,0.00,,---,0.00,VWS V14.01,2013-10-04 08:15:00,
2013-10-04 03:17:00,76.3,65.0,29.60,SSE,150,18.0,27.0,68,0.00,,---,0.00,VWS V14.01,2013-10-04 08:17:00,
2013-10-04 03:18:00,76.5,64.7,29.60,SE,143,22.0,27.0,67,0.00,,---,0.00,VWS V14.01,2013-10-04 08:18:00,
2013-10-04 03:19:00,76.8,65.0,29.60,SSE,153,10.0,27.0,67,0.00,,---,0.00,VWS V14.01,2013-10-04 08:19:00,
2013-10-04 03:20:00,76.8,64.6,29.60,SSE,154,33.0,33.0,66,0.00,,---,0.00,VWS V14.01,2013-10-04 08:20:00,
2013-10-04 03:21:00,77.0,66.1,29.60,SSE,155,23.0,34.0,69,0.00,,---,0.00,VWS V14.01,2013-10-04 08:21:00,
2013-10-04 03:22:00,77.0,64.8,29.60,SSE,160,12.0,34.0,66,0.00,,---,0.00,VWS V14.01,2013-10-04 08:22:00,
2013-10-04 03:23:00,77.0,64.8,29.60,SSE,153,12.0,34.0,66,0.00,,---,0.00,VWS V14.01,2013-10-04 08:23:00,
2013-10-04 03:24:00,77.0,64.8,29.60,SSE,160,12.0,34.0,66,0.00,,---,0.00,VWS V14.01,2013-10-04 08:24:00,
2013-10-04 03:25:00,76.8,65.0,29.60,SSE,152,23.0,34.0,67,0.00,,---,0.00,VWS V14.01,2013-10-04 08:25:00,
2013-10-04 03:26:00,76.8,65.0,29.60,SE,143,21.0,34.0,67,0.00,,---,0.00,VWS V14.01,2013-10-04 08:26:00,
2013-10-04 03:27:00,76.7,64.9,29.60,SSE,148,27.0,34.0,67,0.00,,---,0.00,VWS V14.01,2013-10-04 08:27:00,
2013-10-04 03:28:00,76.7,64.9,29.60,SSE,153,10.0,34.0,67,0.00,,---,0.00,VWS V14.01,2013-10-04 08:28:00,
2013-10-04 03:30:00,76.5,65.2,29.60,SSE,159,11.0,34.0,68,0.00,,---,0.00,VWS V14.01,2013-10-04 08:30:00,
2013-10-04 03:31:00,76.3,65.0,29.60,SE,144,20.0,25.0,68,0.00,,---,0.00,VWS V14.01,2013-10-04 08:31:00,
2013-10-04 03:32:00,76.1,64.8,29.60,SE,142,19.0,25.0,68,0.00,,---,0.00,VWS V14.01,2013-10-04 08:32:00,
2013-10-04 03:33:00,76.1,64.8,29.60,SSE,156,14.0,25.0,68,0.00,,---,0.00,VWS V14.01,2013-10-04 08:33:00,
2013-10-04 03:35:00,75.8,64.9,29.60,SSE,147,16.0,32.0,69,0.00,,---,0.00,VWS V14.01,2013-10-04 08:35:00,
2013-10-04 03:36:00,75.8,64.9,29.60,SSE,150,11.0,32.0,69,0.00,,---,0.00,VWS V14.01,2013-10-04 08:36:00,
2013-10-04 03:37:00,75.6,64.7,29.60,SSE,151,13.0,32.0,69,0.00,,---,0.00,VWS V14.01,2013-10-04 08:37:00,
2013-10-04 03:38:00,75.6,65.1,29.60,SSE,153,16.0,32.0,70,0.00,,---,0.00,VWS V14.01,2013-10-04 08:38:00,
2013-10-04 03:40:00,75.4,64.9,29.60,SSE,153,15.0,15.0,70,0.00,,---,0.00,VWS V14.01,2013-10-04 08:40:00,
2013-10-04 03:41:00,75.3,64.8,29.60,SSE,155,20.0,22.0,70,0.00,,---,0.00,VWS V14.01,2013-10-04 08:41:00,
2013-10-04 03:42:00,75.1,65.1,29.60,SSE,148,22.0,30.0,71,0.00,,---,0.00,VWS V14.01,2013-10-04 08:42:00,
2013-10-04 03:43:00,75.1,65.1,29.60,SE,138,25.0,31.0,71,0.00,,---,0.00,VWS V14.01,2013-10-04 08:43:00,
2013-10-04 03:45:00,74.9,64.9,29.60,SE,144,23.0,31.0,71,0.00,,---,0.00,VWS V14.01,2013-10-04 08:45:00,
2013-10-04 03:46:00,74.9,64.9,29.60,SE,146,18.0,31.0,71,0.00,,---,0.00,VWS V14.01,2013-10-04 08:46:00,
2013-10-04 03:47:00,74.7,66.3,29.60,SE,141,22.0,31.0,75,0.00,,---,0.00,VWS V14.01,2013-10-04 08:47:00,
2013-10-04 03:48:00,74.7,66.3,29.60,SSE,150,15.0,31.0,75,0.00,,---,0.00,VWS V14.01,2013-10-04 08:48:00,
2013-10-04 03:50:00,74.7,65.1,29.60,SE,143,19.0,22.0,72,0.00,,---,0.00,VWS V14.01,2013-10-04 08:50:00,
2013-10-04 03:51:00,74.7,65.1,29.60,SSE,148,14.0,26.0,72,0.00,,---,0.00,VWS V14.01,2013-10-04 08:51:00,
2013-10-04 03:52:00,74.6,65.4,29.60,ESE,109,16.0,26.0,73,0.00,,---,0.00,VWS V14.01,2013-10-04 08:52:00,
2013-10-04 03:53:00,74.6,65.4,29.60,ESE,115,31.0,31.0,73,0.00,,---,0.00,VWS V14.01,2013-10-04 08:53:00,
2013-10-04 03:55:00,74.6,65.4,29.60,SE,146,16.0,31.0,73,0.00,,---,0.00,VWS V14.01,2013-10-04 08:55:00,
2013-10-04 03:56:00,74.6,65.4,29.60,SSE,160,16.0,31.0,73,0.00,,---,0.00,VWS V14.01,2013-10-04 08:56:00,
2013-10-04 03:57:00,74.4,65.2,29.60,SE,143,14.0,31.0,73,0.00,,---,0.00,VWS V14.01,2013-10-04 08:57:00,
2013-10-04 03:58:00,74.4,65.2,29.60,SSE,149,13.0,31.0,73,0.00,,---,0.00,VWS V14.01,2013-10-04 08:58:00,
2013-10-04 03:59:00,74.4,65.2,29.60,SSE,165,19.0,31.0,73,0.00,,---,0.00,VWS V14.01,2013-10-04 08:59:00,
2013-10-04 04:00:00,74.4,65.2,29.60,SE,136,16.0,22.0,73,0.00,,---,0.00,VWS V14.01,2013-10-04 09:00:00,
2013-10-04 04:01:00,74.4,65.2,29.60,SE,130,13.0,22.0,73,0.00,,---,0.00,VWS V14.01,2013-10-04 09:01:00,
2013-10-04 04:02:00,74.4,65.2,29.60,SE,143,13.0,22.0,73,0.00,,---,0.00,VWS V14.01,2013-10-04 09:02:00,
2013-10-04 04:03:00,74.4,65.2,29.60,SSE,148,25.0,25.0,73,0.00,,---,0.00,VWS V14.01,2013-10-04 09:03:00,
2013-10-04 04:04:00,74.4,65.2,29.60,SE,144,22.0,27.0,73,0.00,,---,0.00,VWS V14.01,2013-10-04 09:04:00,
2013-10-04 04:05:00,74.4,65.2,29.60,SE,135,23.0,27.0,73,0.00,,---,0.00,VWS V14.01,2013-10-04 09:05:00,
2013-10-04 04:06:00,74.4,65.2,29.60,SSE,148,17.0,27.0,73,0.00,,---,0.00,VWS V14.01,2013-10-04 09:06:00,
2013-10-04 04:07:00,74.4,65.2,29.60,SE,142,15.0,27.0,73,0.00,,---,0.00,VWS V14.01,2013-10-04 09:07:00,
2013-10-04 04:08:00,74.4,65.2,29.60,SSE,150,15.0,27.0,73,0.00,,---,0.00,VWS V14.01,2013-10-04 09:08:00,
2013-10-04 04:09:00,74.4,65.2,29.60,ESE,123,10.0,27.0,73,0.00,,---,0.00,VWS V14.01,2013-10-04 09:09:00,
2013-10-04 04:11:00,74.6,65.4,29.60,SE,142,13.0,22.0,73,0.00,,---,0.00,VWS V14.01,2013-10-04 09:11:00,
2013-10-04 04:12:00,74.6,65.4,29.60,SSE,160,13.0,22.0,73,0.00,,---,0.00,VWS V14.01,2013-10-04 09:12:00,
2013-10-04 04:13:00,74.6,65.4,29.60,SSE,158,16.0,22.0,73,0.00,,---,0.00,VWS V14.01,2013-10-04 09:13:00,
2013-10-04 04:15:00,74.6,65.4,29.59,SE,140,17.0,24.0,73,0.00,,---,0.00,VWS V14.01,2013-10-04 09:15:00,
2013-10-04 04:16:00,74.6,65.4,29.59,SSE,158,5.0,24.0,73,0.00,,---,0.00,VWS V14.01,2013-10-04 09:16:00,
2013-10-04 04:17:00,74.6,65.4,29.59,SE,145,12.0,24.0,73,0.00,,---,0.00,VWS V14.01,2013-10-04 09:17:00,
2013-10-04 04:18:00,74.6,65.4,29.59,SSE,151,10.0,24.0,73,0.00,,---,0.00,VWS V14.01,2013-10-04 09:18:00,
2013-10-04 04:20:00,74.6,65.4,29.59,SSE,147,12.0,18.0,73,0.00,,---,0.00,VWS V14.01,2013-10-04 09:20:00,
2013-10-04 04:21:00,74.6,65.4,29.59,SE,145,15.0,19.0,73,0.00,,---,0.00,VWS V14.01,2013-10-04 09:21:00,
2013-10-04 04:23:00,74.6,65.4,29.59,SSE,155,6.0,20.0,73,0.00,,---,0.00,VWS V14.01,2013-10-04 09:23:00,
2013-10-04 04:25:00,74.6,65.4,29.59,SSE,154,14.0,25.0,73,0.00,,---,0.00,VWS V14.01,2013-10-04 09:25:00,
2013-10-04 04:26:00,74.7,65.5,29.59,SSE,151,7.0,25.0,73,0.00,,---,0.00,VWS V14.01,2013-10-04 09:26:00,
2013-10-04 04:28:00,74.6,65.4,29.59,South,178,9.0,28.0,73,0.00,,---,0.00,VWS V14.01,2013-10-04 09:28:00,
2013-10-04 04:30:00,74.6,65.4,29.59,SSE,149,21.0,25.0,73,0.00,,---,0.00,VWS V14.01,2013-10-04 09:30:00,
2013-10-04 04:31:00,74.6,65.4,29.59,SE,144,12.0,25.0,73,0.00,,---,0.00,VWS V14.01,2013-10-04 09:31:00,
2013-10-04 04:32:00,74.6,65.4,29.59,SE,138,16.0,25.0,73,0.00,,---,0.00,VWS V14.01,2013-10-04 09:32:00,
2013-10-04 04:33:00,74.6,65.4,29.59,South,186,11.0,25.0,73,0.00,,---,0.00,VWS V14.01,2013-10-04 09:33:00,
2013-10-04 04:35:00,74.6,65.4,29.59,SSE,147,17.0,25.0,73,0.00,,---,0.00,VWS V14.01,2013-10-04 09:35:00,
2013-10-04 04:36:00,74.6,65.8,29.59,SSE,159,25.0,28.0,74,0.00,,---,0.00,VWS V14.01,2013-10-04 09:36:00,
2013-10-04 04:37:00,74.6,65.4,29.59,SSE,152,13.0,28.0,73,0.00,,---,0.00,VWS V14.01,2013-10-04 09:37:00,
2013-10-04 04:38:00,74.6,65.4,29.59,SSE,156,12.0,28.0,73,0.00,,---,0.00,VWS V14.01,2013-10-04 09:38:00,
2013-10-04 04:40:00,74.6,65.8,29.59,SSE,160,11.0,15.0,74,0.00,,---,0.00,VWS V14.01,2013-10-04 09:40:00,
2013-10-04 04:41:00,74.6,65.8,29.59,SSE,164,5.0,15.0,74,0.00,,---,0.00,VWS V14.01,2013-10-04 09:41:00,
2013-10-04 04:42:00,74.6,65.8,29.59,SSE,157,16.0,24.0,74,0.00,,---,0.00,VWS V14.01,2013-10-04 09:42:00,
2013-10-04 04:43:00,74.4,65.6,29.59,SSE,166,13.0,24.0,74,0.00,,---,0.00,VWS V14.01,2013-10-04 09:43:00,
2013-10-04 04:44:00,74.4,66.0,29.59,SSE,148,15.0,24.0,75,0.00,,---,0.00,VWS V14.01,2013-10-04 09:44:00,
2013-10-04 04:45:00,74.2,66.2,29.61,SSW,197,20.0,24.0,76,0.00,,---,0.00,VWS V14.01,2013-10-04 09:45:00,
2013-10-04 04:46:00,74.0,66.0,29.61,SSW,204,11.0,24.0,76,0.01,,---,0.01,VWS V14.01,2013-10-04 09:46:00,
2013-10-04 04:47:00,73.7,66.4,29.61,SSW,192,10.0,24.0,78,0.01,,---,0.01,VWS V14.01,2013-10-04 09:47:00,
2013-10-04 04:48:00,73.5,66.6,29.61,SSW,200,14.0,24.0,79,0.01,,---,0.01,VWS V14.01,2013-10-04 09:48:00,
2013-10-04 04:49:00,73.2,66.7,29.61,SSE,165,6.0,24.0,80,0.01,,---,0.01,VWS V14.01,2013-10-04 09:49:00,
2013-10-04 04:50:00,73.0,67.2,29.61,South,188,5.0,7.0,82,0.01,,---,0.01,VWS V14.01,2013-10-04 09:50:00,
2013-10-04 04:51:00,72.8,67.0,29.61,South,174,3.0,8.0,82,0.01,,---,0.01,VWS V14.01,2013-10-04 09:51:00,
2013-10-04 04:52:00,72.7,67.2,29.61,SSE,153,5.0,16.0,83,0.01,,---,0.01,VWS V14.01,2013-10-04 09:52:00,
2013-10-04 04:53:00,72.5,67.1,29.61,SSE,150,14.0,16.0,83,0.01,,---,0.01,VWS V14.01,2013-10-04 09:53:00,
2013-10-04 04:54:00,72.5,67.1,29.61,SSE,154,5.0,16.0,83,0.01,,---,0.01,VWS V14.01,2013-10-04 09:54:00,
2013-10-04 04:55:00,72.5,67.1,29.61,SSE,149,15.0,19.0,83,0.01,,---,0.01,VWS V14.01,2013-10-04 09:55:00,
2013-10-04 04:56:00,72.7,67.2,29.61,SE,133,17.0,19.0,83,0.01,,---,0.01,VWS V14.01,2013-10-04 09:56:00,
2013-10-04 04:57:00,72.7,66.9,29.61,SE,145,16.0,19.0,82,0.01,,---,0.01,VWS V14.01,2013-10-04 09:57:00,
2013-10-04 04:58:00,72.7,66.9,29.61,SE,136,9.0,19.0,82,0.01,,---,0.01,VWS V14.01,2013-10-04 09:58:00,
2013-10-04 04:59:00,72.7,66.9,29.61,SE,138,16.0,19.0,82,0.01,,---,0.01,VWS V14.01,2013-10-04 09:59:00,
2013-10-04 05:00:00,72.8,67.0,29.59,SSE,153,18.0,18.0,82,0.01,,---,0.01,VWS V14.01,2013-10-04 10:00:00,
2013-10-04 05:01:00,72.8,67.0,29.59,SE,144,15.0,20.0,82,0.01,,---,0.01,VWS V14.01,2013-10-04 10:01:00,
2013-10-04 05:02:00,72.8,67.0,29.59,SE,136,17.0,20.0,82,0.01,,---,0.01,VWS V14.01,2013-10-04 10:02:00,
2013-10-04 05:03:00,72.8,67.0,29.59,SSE,150,9.0,20.0,82,0.01,,---,0.01,VWS V14.01,2013-10-04 10:03:00,
2013-10-04 05:04:00,72.8,66.6,29.59,SSE,162,16.0,20.0,81,0.01,,---,0.01,VWS V14.01,2013-10-04 10:04:00,
2013-10-04 05:06:00,72.8,66.6,29.59,SE,146,19.0,20.0,81,0.01,,---,0.01,VWS V14.01,2013-10-04 10:06:00,
2013-10-04 05:07:00,73.0,66.8,29.59,SSE,149,17.0,20.0,81,0.01,,---,0.01,VWS V14.01,2013-10-04 10:07:00,
2013-10-04 05:08:00,73.0,66.8,29.59,SE,141,12.0,20.0,81,0.01,,---,0.01,VWS V14.01,2013-10-04 10:08:00,
2013-10-04 05:09:00,73.0,66.8,29.59,SE,138,18.0,20.0,81,0.01,,---,0.01,VWS V14.01,2013-10-04 10:09:00,
2013-10-04 05:11:00,73.0,66.8,29.59,SSE,153,6.0,16.0,81,0.01,,---,0.01,VWS V14.01,2013-10-04 10:11:00,
2013-10-04 05:12:00,72.8,66.6,29.59,SE,141,10.0,16.0,81,0.01,,---,0.01,VWS V14.01,2013-10-04 10:12:00,
2013-10-04 05:13:00,72.8,66.6,29.59,SSE,150,6.0,17.0,81,0.01,,---,0.01,VWS V14.01,2013-10-04 10:13:00,
2013-10-04 05:14:00,72.8,66.6,29.59,SSE,155,13.0,22.0,81,0.01,,---,0.01,VWS V14.01,2013-10-04 10:14:00,
2013-10-04 05:16:00,72.8,66.6,29.59,SE,143,17.0,22.0,81,0.01,,---,0.01,VWS V14.01,2013-10-04 10:16:00,
2013-10-04 05:17:00,72.8,66.6,29.59,SSE,154,16.0,22.0,81,0.01,,---,0.01,VWS V14.01,2013-10-04 10:17:00,
2013-10-04 05:18:00,72.8,66.6,29.59,SE,144,17.0,22.0,81,0.01,,---,0.01,VWS V14.01,2013-10-04 10:18:00,
2013-10-04 05:19:00,72.8,66.6,29.59,SE,142,5.0,22.0,81,0.01,,---,0.01,VWS V14.01,2013-10-04 10:19:00,
2013-10-04 05:21:00,72.8,66.6,29.59,SE,140,11.0,24.0,81,0.01,,---,0.01,VWS V14.01,2013-10-04 10:21:00,
2013-10-04 05:22:00,72.8,66.6,29.59,SSE,152,10.0,24.0,81,0.01,,---,0.01,VWS V14.01,2013-10-04 10:22:00,
2013-10-04 05:23:00,72.8,66.6,29.59,SE,141,15.0,24.0,81,0.01,,---,0.01,VWS V14.01,2013-10-04 10:23:00,
2013-10-04 05:24:00,72.8,66.6,29.59,SE,140,15.0,24.0,81,0.01,,---,0.01,VWS V14.01,2013-10-04 10:24:00,
2013-10-04 05:26:00,72.8,66.6,29.59,SE,145,20.0,24.0,81,0.01,,---,0.01,VWS V14.01,2013-10-04 10:26:00,
2013-10-04 05:27:00,72.8,66.6,29.59,SE,146,15.0,24.0,81,0.01,,---,0.01,VWS V14.01,2013-10-04 10:27:00,
2013-10-04 05:28:00,72.8,66.6,29.59,SE,145,18.0,24.0,81,0.01,,---,0.01,VWS V14.01,2013-10-04 10:28:00,
2013-10-04 05:29:00,72.8,66.6,29.59,SE,144,10.0,24.0,81,0.01,,---,0.01,VWS V14.01,2013-10-04 10:29:00,
2013-10-04 05:31:00,72.8,66.6,29.60,SSE,152,16.0,19.0,81,0.01,,---,0.01,VWS V14.01,2013-10-04 10:31:00,
2013-10-04 05:32:00,72.8,66.6,29.60,SE,142,18.0,19.0,81,0.01,,---,0.01,VWS V14.01,2013-10-04 10:32:00,
2013-10-04 05:34:00,72.8,66.6,29.60,SE,137,11.0,19.0,81,0.01,,---,0.01,VWS V14.01,2013-10-04 10:34:00,
2013-10-04 05:36:00,72.8,66.6,29.60,SE,145,9.0,19.0,81,0.01,,---,0.01,VWS V14.01,2013-10-04 10:36:00,
2013-10-04 05:37:00,72.8,66.6,29.60,SE,141,12.0,19.0,81,0.01,,---,0.01,VWS V14.01,2013-10-04 10:37:00,
2013-10-04 05:39:00,72.8,66.6,29.60,SE,138,12.0,19.0,81,0.01,,---,0.01,VWS V14.01,2013-10-04 10:39:00,
2013-10-04 05:41:00,72.8,67.0,29.60,SSE,151,11.0,18.0,82,0.01,,---,0.01,VWS V14.01,2013-10-04 10:41:00,
2013-10-04 05:42:00,72.8,67.0,29.60,SE,146,22.0,22.0,82,0.01,,---,0.01,VWS V14.01,2013-10-04 10:42:00,
2013-10-04 05:43:00,72.8,67.0,29.60,SSE,150,20.0,24.0,82,0.01,,---,0.01,VWS V14.01,2013-10-04 10:43:00,
2013-10-04 05:44:00,72.8,66.6,29.60,SSE,154,17.0,24.0,81,0.01,,---,0.01,VWS V14.01,2013-10-04 10:44:00,
2013-10-04 05:46:00,72.8,66.6,29.59,SSE,147,7.0,24.0,81,0.01,,---,0.01,VWS V14.01,2013-10-04 10:46:00,
2013-10-04 05:47:00,72.8,66.6,29.59,SSE,148,6.0,24.0,81,0.01,,---,0.01,VWS V14.01,2013-10-04 10:47:00,
2013-10-04 05:48:00,72.8,66.6,29.59,SSE,157,11.0,24.0,81,0.01,,---,0.01,VWS V14.01,2013-10-04 10:48:00,
2013-10-04 05:49:00,72.8,66.6,29.59,SE,138,22.0,24.0,81,0.01,,---,0.01,VWS V14.01,2013-10-04 10:49:00,
2013-10-04 05:51:00,73.0,66.8,29.59,SE,144,14.0,22.0,81,0.00,,---,0.01,VWS V14.01,2013-10-04 10:51:00,
2013-10-04 05:52:00,73.0,66.8,29.59,SE,146,15.0,22.0,81,0.00,,---,0.01,VWS V14.01,2013-10-04 10:52:00,
2013-10-04 05:53:00,73.0,66.8,29.59,SE,142,13.0,23.0,81,0.00,,---,0.01,VWS V14.01,2013-10-04 10:53:00,
2013-10-04 05:54:00,73.0,66.8,29.59,SSE,153,12.0,23.0,81,0.00,,---,0.01,VWS V14.01,2013-10-04 10:54:00,
2013-10-04 05:56:00,73.0,66.8,29.59,SSE,149,13.0,23.0,81,0.00,,---,0.01,VWS V14.01,2013-10-04 10:56:00,
2013-10-04 05:57:00,73.0,66.8,29.59,SSE,153,19.0,23.0,81,0.00,,---,0.01,VWS V14.01,2013-10-04 10:57:00,
2013-10-04 05:58:00,73.0,66.8,29.59,SSE,159,14.0,23.0,81,0.00,,---,0.01,VWS V14.01,2013-10-04 10:58:00,
2013-10-04 05:59:00,73.0,66.8,29.59,SSE,152,10.0,23.0,81,0.00,,---,0.01,VWS V14.01,2013-10-04 10:59:00,
2013-10-04 06:01:00,73.0,66.8,29.60,SE,144,16.0,19.0,81,0.00,,---,0.01,VWS V14.01,2013-10-04 11:01:00,
2013-10-04 06:02:00,72.8,66.6,29.60,SE,140,12.0,19.0,81,0.00,,---,0.01,VWS V14.01,2013-10-04 11:02:00,
2013-10-04 06:03:00,73.0,66.8,29.60,SSE,158,11.0,19.0,81,0.00,,---,0.01,VWS V14.01,2013-10-04 11:03:00,
2013-10-04 06:05:00,73.0,66.8,29.60,SE,144,11.0,19.0,81,0.00,,---,0.01,VWS V14.01,2013-10-04 11:05:00,
2013-10-04 06:06:00,73.0,66.8,29.60,SSE,155,9.0,22.0,81,0.00,,---,0.01,VWS V14.01,2013-10-04 11:06:00,
2013-10-04 06:07:00,73.0,66.8,29.60,SSE,148,6.0,22.0,81,0.00,,---,0.01,VWS V14.01,2013-10-04 11:07:00,
2013-10-04 06:08:00,73.0,66.8,29.60,SSE,148,13.0,22.0,81,0.00,,---,0.01,VWS V14.01,2013-10-04 11:08:00,
2013-10-04 06:10:00,73.0,66.8,29.60,SE,128,12.0,22.0,81,0.00,,---,0.01,VWS V14.01,2013-10-04 11:10:00,
2013-10-04 06:11:00,73.0,66.8,29.60,SE,140,17.0,24.0,81,0.00,,---,0.01,VWS V14.01,2013-10-04 11:11:00,
2013-10-04 06:12:00,73.0,66.8,29.60,SSE,148,11.0,24.0,81,0.00,,---,0.01,VWS V14.01,2013-10-04 11:12:00,
2013-10-04 06:13:00,73.2,67.0,29.60,SE,142,14.0,24.0,81,0.00,,---,0.01,VWS V14.01,2013-10-04 11:13:00,
2013-10-04 06:15:00,73.2,67.0,29.60,SSE,148,10.0,24.0,81,0.00,,---,0.01,VWS V14.01,2013-10-04 11:15:00,
2013-10-04 06:16:00,73.2,67.0,29.60,SE,140,19.0,24.0,81,0.00,,---,0.01,VWS V14.01,2013-10-04 11:16:00,
2013-10-04 06:17:00,73.2,67.0,29.60,SSE,150,9.0,24.0,81,0.00,,---,0.01,VWS V14.01,2013-10-04 11:17:00,
2013-10-04 06:18:00,73.2,67.0,29.60,SE,133,23.0,24.0,81,0.00,,---,0.01,VWS V14.01,2013-10-04 11:18:00,
2013-10-04 06:20:00,73.2,66.7,29.60,SSE,158,14.0,24.0,80,0.00,,---,0.01,VWS V14.01,2013-10-04 11:20:00,
2013-10-04 06:22:00,73.2,66.7,29.60,SSE,153,10.0,17.0,80,0.00,,---,0.01,VWS V14.01,2013-10-04 11:22:00,
2013-10-04 06:23:00,73.3,66.8,29.60,SE,139,18.0,19.0,80,0.00,,---,0.01,VWS V14.01,2013-10-04 11:23:00,
2013-10-04 06:25:00,73.3,66.8,29.60,SSE,164,7.0,19.0,80,0.00,,---,0.01,VWS V14.01,2013-10-04 11:25:00,
2013-10-04 06:26:00,73.3,66.8,29.60,SE,144,13.0,19.0,80,0.00,,---,0.01,VWS V14.01,2013-10-04 11:26:00,
2013-10-04 06:27:00,73.3,66.8,29.60,South,190,14.0,20.0,80,0.00,,---,0.01,VWS V14.01,2013-10-04 11:27:00,
2013-10-04 06:29:00,73.3,66.8,29.60,SE,146,14.0,20.0,80,0.00,,---,0.01,VWS V14.01,2013-10-04 11:29:00,
2013-10-04 06:30:00,73.3,66.8,29.60,SE,140,16.0,20.0,80,0.00,,---,0.01,VWS V14.01,2013-10-04 11:30:00,
2013-10-04 06:31:00,73.3,66.8,29.60,SE,146,16.0,20.0,80,0.00,,---,0.01,VWS V14.01,2013-10-04 11:31:00,
2013-10-04 06:32:00,73.3,66.8,29.60,SSE,150,9.0,20.0,80,0.00,,---,0.01,VWS V14.01,2013-10-04 11:32:00,
2013-10-04 06:34:00,73.3,66.8,29.60,South,183,6.0,20.0,80,0.00,,---,0.01,VWS V14.01,2013-10-04 11:34:00,
2013-10-04 06:35:00,73.3,66.8,29.60,SSE,148,15.0,20.0,80,0.00,,---,0.01,VWS V14.01,2013-10-04 11:35:00,
2013-10-04 06:36:00,73.3,66.8,29.60,SSE,157,5.0,20.0,80,0.00,,---,0.01,VWS V14.01,2013-10-04 11:36:00,
2013-10-04 06:37:00,73.3,66.8,29.60,SSE,150,11.0,20.0,80,0.00,,---,0.01,VWS V14.01,2013-10-04 11:37:00,
2013-10-04 06:38:00,73.3,66.8,29.60,SSE,155,9.0,20.0,80,0.00,,---,0.01,VWS V14.01,2013-10-04 11:38:00,
2013-10-04 06:39:00,73.3,66.8,29.60,SSE,155,9.0,20.0,80,0.00,,---,0.01,VWS V14.01,2013-10-04 11:39:00,
2013-10-04 06:40:00,73.3,66.8,29.60,SSE,158,13.0,17.0,80,0.00,,---,0.01,VWS V14.01,2013-10-04 11:40:00,
2013-10-04 06:41:00,73.3,66.8,29.60,SE,144,5.0,18.0,80,0.00,,---,0.01,VWS V14.01,2013-10-04 11:41:00,
2013-10-04 06:42:00,73.5,67.0,29.60,SSE,152,6.0,20.0,80,0.00,,---,0.01,VWS V14.01,2013-10-04 11:42:00,
2013-10-04 06:43:00,73.5,67.0,29.60,South,188,3.0,20.0,80,0.00,,---,0.01,VWS V14.01,2013-10-04 11:43:00,
2013-10-04 06:44:00,73.3,66.8,29.60,SSE,158,3.0,20.0,80,0.00,,---,0.01,VWS V14.01,2013-10-04 11:44:00,
2013-10-04 06:45:00,73.3,66.8,29.60,SSE,148,10.0,20.0,80,0.00,,---,0.01,VWS V14.01,2013-10-04 11:45:00,
2013-10-04 06:46:00,73.3,66.8,29.60,SSE,148,11.0,20.0,80,0.00,,---,0.01,VWS V14.01,2013-10-04 11:46:00,
2013-10-04 06:47:00,73.3,66.8,29.60,South,171,17.0,20.0,80,0.00,,---,0.01,VWS V14.01,2013-10-04 11:47:00,
2013-10-04 06:48:00,73.5,67.0,29.60,SSE,153,5.0,20.0,80,0.00,,---,0.01,VWS V14.01,2013-10-04 11:48:00,
2013-10-04 06:49:00,73.5,67.0,29.60,SE,140,7.0,20.0,80,0.00,,---,0.01,VWS V14.01,2013-10-04 11:49:00,
2013-10-04 06:50:00,73.5,67.0,29.60,SW,223,6.0,11.0,80,0.00,,---,0.01,VWS V14.01,2013-10-04 11:50:00,
2013-10-04 06:51:00,73.5,67.0,29.60,SSE,148,10.0,12.0,80,0.00,,---,0.01,VWS V14.01,2013-10-04 11:51:00,
2013-10-04 06:52:00,73.5,66.6,29.60,SSE,152,6.0,14.0,79,0.00,,---,0.01,VWS V14.01,2013-10-04 11:52:00,
2013-10-04 06:53:00,73.5,67.0,29.60,SSE,149,12.0,14.0,80,0.00,,---,0.01,VWS V14.01,2013-10-04 11:53:00,
2013-10-04 06:54:00,73.5,66.6,29.60,SSE,165,5.0,15.0,79,0.00,,---,0.01,VWS V14.01,2013-10-04 11:54:00,
2013-10-04 06:55:00,73.5,66.6,29.60,SSE,153,18.0,22.0,79,0.00,,---,0.01,VWS V14.01,2013-10-04 11:55:00,
2013-10-04 06:56:00,73.5,66.6,29.60,SSE,147,16.0,26.0,79,0.00,,---,0.01,VWS V14.01,2013-10-04 11:56:00,
2013-10-04 06:58:00,73.7,66.8,29.60,SSE,159,5.0,26.0,79,0.00,,---,0.01,VWS V14.01,2013-10-04 11:58:00,
2013-10-04 06:59:00,73.5,66.6,29.60,SSE,159,5.0,26.0,79,0.00,,---,0.01,VWS V14.01,2013-10-04 11:59:00,
2013-10-04 07:00:00,73.5,66.6,29.60,SSE,154,10.0,11.0,79,0.00,,---,0.01,VWS V14.01,2013-10-04 12:00:00,
2013-10-04 07:01:00,73.5,66.6,29.60,SSE,151,7.0,11.0,79,0.00,,---,0.01,VWS V14.01,2013-10-04 12:01:00,
2013-10-04 07:03:00,73.5,66.6,29.60,South,181,14.0,17.0,79,0.00,,---,0.01,VWS V14.01,2013-10-04 12:03:00,
2013-10-04 07:05:00,73.5,66.6,29.60,SSE,163,11.0,17.0,79,0.00,,---,0.01,VWS V14.01,2013-10-04 12:05:00,
2013-10-04 07:06:00,73.5,66.6,29.60,SSE,152,10.0,17.0,79,0.00,,---,0.01,VWS V14.01,2013-10-04 12:06:00,
2013-10-04 07:08:00,73.5,66.6,29.60,SSE,153,10.0,17.0,79,0.00,,---,0.01,VWS V14.01,2013-10-04 12:08:00,
2013-10-04 07:10:00,73.5,66.6,29.60,SSE,148,5.0,17.0,79,0.00,,---,0.01,VWS V14.01,2013-10-04 12:10:00,
2013-10-04 07:11:00,73.5,66.6,29.60,SSE,159,4.0,10.0,79,0.00,,---,0.01,VWS V14.01,2013-10-04 12:11:00,
2013-10-04 07:13:00,73.5,66.6,29.60,SSE,152,16.0,18.0,79,0.00,,---,0.01,VWS V14.01,2013-10-04 12:13:00,
2013-10-04 07:15:00,73.5,67.0,29.61,SSE,148,10.0,18.0,80,0.00,,---,0.01,VWS V14.01,2013-10-04 12:15:00,
2013-10-04 07:16:00,73.5,66.6,29.61,SSE,165,7.0,18.0,79,0.00,,---,0.01,VWS V14.01,2013-10-04 12:16:00,
2013-10-04 07:18:00,73.5,66.6,29.61,SSE,163,4.0,18.0,79,0.00,,---,0.01,VWS V14.01,2013-10-04 12:18:00,
2013-10-04 07:20:00,73.5,66.6,29.61,South,186,6.0,18.0,79,0.00,,---,0.01,VWS V14.01,2013-10-04 12:20:00,
2013-10-04 07:21:00,73.5,66.6,29.61,South,169,9.0,14.0,79,0.00,,---,0.01,VWS V14.01,2013-10-04 12:21:00,
2013-10-04 07:22:00,73.5,66.6,29.61,SE,143,9.0,14.0,79,0.00,,---,0.01,VWS V14.01,2013-10-04 12:22:00,
2013-10-04 07:23:00,73.5,66.6,29.61,SSW,207,7.0,14.0,79,0.00,,---,0.01,VWS V14.01,2013-10-04 12:23:00,
2013-10-04 07:25:00,73.5,66.6,29.61,SSE,155,5.0,15.0,79,0.00,,---,0.01,VWS V14.01,2013-10-04 12:25:00,
2013-10-04 07:26:00,73.5,66.6,29.61,South,171,3.0,15.0,79,0.00,,---,0.01,VWS V14.01,2013-10-04 12:26:00,
2013-10-04 07:27:00,73.5,66.6,29.61,SSE,167,5.0,15.0,79,0.00,,---,0.01,VWS V14.01,2013-10-04 12:27:00,
2013-10-04 07:28:00,73.3,66.4,29.61,SSE,162,3.0,15.0,79,0.00,,---,0.01,VWS V14.01,2013-10-04 12:28:00,
2013-10-04 07:30:00,73.3,66.8,29.61,SSE,163,5.0,8.0,80,0.00,,---,0.01,VWS V14.01,2013-10-04 12:30:00,
2013-10-04 07:31:00,73.3,66.8,29.61,SSE,165,6.0,8.0,80,0.00,,---,0.01,VWS V14.01,2013-10-04 12:31:00,
2013-10-04 07:32:00,73.3,66.8,29.61,SSE,158,5.0,10.0,80,0.00,,---,0.01,VWS V14.01,2013-10-04 12:32:00,
2013-10-04 07:33:00,73.3,66.8,29.61,SSE,165,4.0,15.0,80,0.00,,---,0.01,VWS V14.01,2013-10-04 12:33:00,
2013-10-04 07:35:00,73.3,66.8,29.61,SSE,166,4.0,15.0,80,0.00,,---,0.01,VWS V14.01,2013-10-04 12:35:00,
2013-10-04 07:36:00,73.3,66.8,29.61,SSE,150,12.0,15.0,80,0.00,,---,0.01,VWS V14.01,2013-10-04 12:36:00,
2013-10-04 07:37:00,73.3,66.8,29.61,South,171,7.0,15.0,80,0.00,,---,0.01,VWS V14.01,2013-10-04 12:37:00,
2013-10-04 07:38:00,73.3,66.8,29.61,SSE,154,11.0,15.0,80,0.00,,---,0.01,VWS V14.01,2013-10-04 12:38:00,
2013-10-04 07:40:00,73.3,66.8,29.61,SSE,167,2.0,3.0,80,0.00,,---,0.01,VWS V14.01,2013-10-04 12:40:00,
2013-10-04 07:41:00,73.3,66.4,29.61,SSE,161,5.0,6.0,79,0.00,,---,0.01,VWS V14.01,2013-10-04 12:41:00,
2013-10-04 07:42:00,73.3,66.8,29.61,SSE,158,4.0,11.0,80,0.00,,---,0.01,VWS V14.01,2013-10-04 12:42:00,
2013-10-04 07:43:00,73.3,66.8,29.61,SSW,196,12.0,12.0,80,0.00,,---,0.01,VWS V14.01,2013-10-04 12:43:00,
2013-10-04 07:45:00,73.3,66.8,29.61,SSE,156,5.0,12.0,80,0.00,,---,0.01,VWS V14.01,2013-10-04 12:45:00,
2013-10-04 07:46:00,73.3,66.8,29.61,SSE,167,6.0,12.0,80,0.00,,---,0.01,VWS V14.01,2013-10-04 12:46:00,
2013-10-04 07:47:00,73.3,66.8,29.61,SSE,163,4.0,14.0,80,0.00,,---,0.01,VWS V14.01,2013-10-04 12:47:00,
2013-10-04 07:48:00,73.3,66.8,29.61,South,171,4.0,14.0,80,0.00,,---,0.01,VWS V14.01,2013-10-04 12:48:00,
2013-10-04 07:49:00,73.3,66.8,29.61,SSE,163,5.0,14.0,80,0.00,,---,0.01,VWS V14.01,2013-10-04 12:49:00,
2013-10-04 07:50:00,73.3,66.8,29.61,South,175,3.0,3.0,80,0.00,,---,0.01,VWS V14.01,2013-10-04 12:50:00,
2013-10-04 07:51:00,73.3,66.8,29.61,SSE,159,9.0,15.0,80,0.00,,---,0.01,VWS V14.01,2013-10-04 12:51:00,
2013-10-04 07:52:00,73.3,66.8,29.61,SSE,150,4.0,15.0,80,0.00,,---,0.01,VWS V14.01,2013-10-04 12:52:00,
2013-10-04 07:53:00,73.3,66.8,29.61,SE,146,7.0,15.0,80,0.00,,---,0.01,VWS V14.01,2013-10-04 12:53:00,
2013-10-04 07:54:00,73.3,66.8,29.61,SSE,159,4.0,15.0,80,0.00,,---,0.01,VWS V14.01,2013-10-04 12:54:00,
2013-10-04 07:55:00,73.5,67.0,29.61,SSE,161,7.0,20.0,80,0.00,,---,0.01,VWS V14.01,2013-10-04 12:55:00,
2013-10-04 07:56:00,73.5,67.0,29.61,SSE,158,5.0,20.0,80,0.00,,---,0.01,VWS V14.01,2013-10-04 12:56:00,
2013-10-04 07:57:00,73.5,67.0,29.61,South,178,6.0,20.0,80,0.00,,---,0.01,VWS V14.01,2013-10-04 12:57:00,
2013-10-04 07:58:00,73.5,67.0,29.61,SSW,199,6.0,20.0,80,0.00,,---,0.01,VWS V14.01,2013-10-04 12:58:00,
2013-10-04 07:59:00,73.5,67.0,29.61,SSW,198,5.0,20.0,80,0.00,,---,0.01,VWS V14.01,2013-10-04 12:59:00,
2013-10-04 08:00:00,73.5,67.0,29.62,SSE,150,0.0,2.0,80,0.00,,---,0.01,VWS V14.01,2013-10-04 13:00:00,
2013-10-04 08:01:00,73.5,66.6,29.62,SE,142,9.0,14.0,79,0.00,,---,0.01,VWS V14.01,2013-10-04 13:01:00,
2013-10-04 08:02:00,73.5,66.6,29.62,SSE,162,4.0,14.0,79,0.00,,---,0.01,VWS V14.01,2013-10-04 13:02:00,
2013-10-04 08:03:00,73.5,66.6,29.62,South,185,8.0,19.0,79,0.00,,---,0.01,VWS V14.01,2013-10-04 13:03:00,
2013-10-04 08:04:00,73.5,66.6,29.62,SSE,148,5.0,19.0,79,0.00,,---,0.01,VWS V14.01,2013-10-04 13:04:00,
2013-10-04 08:05:00,73.5,66.6,29.62,SSE,153,6.0,19.0,79,0.00,,---,0.01,VWS V14.01,2013-10-04 13:05:00,
2013-10-04 08:06:00,73.5,66.6,29.62,SSE,156,3.0,19.0,79,0.00,,---,0.01,VWS V14.01,2013-10-04 13:06:00,
2013-10-04 08:07:00,73.5,66.6,29.62,South,169,7.0,20.0,79,0.00,,---,0.01,VWS V14.01,2013-10-04 13:07:00,
2013-10-04 08:08:00,73.5,66.6,29.62,SSE,153,9.0,20.0,79,0.00,,---,0.01,VWS V14.01,2013-10-04 13:08:00,
2013-10-04 08:09:00,73.5,66.6,29.62,SSE,163,5.0,20.0,79,0.00,,---,0.01,VWS V14.01,2013-10-04 13:09:00,
2013-10-04 08:10:00,73.7,66.8,29.62,SSE,157,9.0,9.0,79,0.00,,---,0.01,VWS V14.01,2013-10-04 13:10:00,
2013-10-04 08:11:00,73.7,66.8,29.62,South,175,4.0,9.0,79,0.00,,---,0.01,VWS V14.01,2013-10-04 13:11:00,
2013-10-04 08:12:00,73.7,66.8,29.62,South,182,13.0,14.0,79,0.00,,---,0.01,VWS V14.01,2013-10-04 13:12:00,
2013-10-04 08:14:00,73.7,66.8,29.62,South,175,5.0,14.0,79,0.00,,---,0.01,VWS V14.01,2013-10-04 13:14:00,
2013-10-04 08:15:00,73.7,66.8,29.61,SSE,163,5.0,14.0,79,0.00,,---,0.01,VWS V14.01,2013-10-04 13:15:00,
2013-10-04 08:16:00,73.7,66.8,29.61,SSE,147,6.0,14.0,79,0.00,,---,0.01,VWS V14.01,2013-10-04 13:16:00,
2013-10-04 08:17:00,73.7,66.8,29.61,SSE,153,16.0,16.0,79,0.00,,---,0.01,VWS V14.01,2013-10-04 13:17:00,
2013-10-04 08:19:00,73.7,66.8,29.61,SSE,157,11.0,16.0,79,0.00,,---,0.01,VWS V14.01,2013-10-04 13:19:00,
2013-10-04 08:21:00,73.9,67.0,29.61,SSE,159,7.0,17.0,79,0.00,,---,0.01,VWS V14.01,2013-10-04 13:21:00,
2013-10-04 08:22:00,73.9,67.0,29.61,SSE,147,15.0,17.0,79,0.00,,---,0.01,VWS V14.01,2013-10-04 13:22:00,
2013-10-04 08:24:00,73.9,67.0,29.61,South,185,7.0,20.0,79,0.00,,---,0.01,VWS V14.01,2013-10-04 13:24:00,
2013-10-04 08:26:00,73.9,67.0,29.61,SSE,148,5.0,21.0,79,0.00,,---,0.01,VWS V14.01,2013-10-04 13:26:00,
2013-10-04 08:27:00,74.0,67.1,29.61,South,178,7.0,21.0,79,0.00,,---,0.01,VWS V14.01,2013-10-04 13:27:00,
2013-10-04 08:29:00,74.0,66.7,29.61,SSE,157,10.0,23.0,78,0.00,,---,0.01,VWS V14.01,2013-10-04 13:29:00,
2013-10-04 08:30:00,74.0,66.7,29.61,SSE,163,7.0,23.0,78,0.00,,---,0.01,VWS V14.01,2013-10-04 13:30:00,
2013-10-04 08:31:00,74.0,66.7,29.61,SSE,165,13.0,19.0,78,0.00,,---,0.01,VWS V14.01,2013-10-04 13:31:00,
2013-10-04 08:32:00,74.0,66.7,29.61,SSE,151,10.0,19.0,78,0.00,,---,0.01,VWS V14.01,2013-10-04 13:32:00,
2013-10-04 08:34:00,73.9,67.3,29.61,SE,142,12.0,19.0,80,0.00,,---,0.01,VWS V14.01,2013-10-04 13:34:00,
2013-10-04 08:35:00,73.9,67.0,29.61,SSE,165,3.0,19.0,79,0.00,,---,0.01,VWS V14.01,2013-10-04 13:35:00,
2013-10-04 08:36:00,73.9,67.0,29.61,SSE,159,3.0,19.0,79,0.00,,---,0.01,VWS V14.01,2013-10-04 13:36:00,
2013-10-04 08:37:00,73.9,67.0,29.61,SSE,167,0.0,19.0,79,0.00,,---,0.01,VWS V14.01,2013-10-04 13:37:00,
2013-10-04 08:39:00,73.9,67.0,29.61,SSE,156,12.0,19.0,79,0.00,,---,0.01,VWS V14.01,2013-10-04 13:39:00,
2013-10-04 08:40:00,73.9,67.0,29.61,SE,145,6.0,19.0,79,0.00,,---,0.01,VWS V14.01,2013-10-04 13:40:00,
2013-10-04 08:41:00,74.0,67.1,29.61,South,169,6.0,15.0,79,0.00,,---,0.01,VWS V14.01,2013-10-04 13:41:00,
2013-10-04 08:42:00,74.0,67.1,29.61,SE,146,2.0,15.0,79,0.00,,---,0.01,VWS V14.01,2013-10-04 13:42:00,
2013-10-04 08:44:00,74.2,67.3,29.61,SSE,147,14.0,15.0,79,0.00,,---,0.01,VWS V14.01,2013-10-04 13:44:00,
2013-10-04 08:45:00,74.4,67.5,29.62,South,180,7.0,15.0,79,0.00,,---,0.01,VWS V14.01,2013-10-04 13:45:00,
2013-10-04 08:46:00,74.6,67.3,29.62,SE,140,12.0,15.0,78,0.00,,---,0.01,VWS V14.01,2013-10-04 13:46:00,
2013-10-04 08:47:00,74.6,67.3,29.62,SSE,152,5.0,15.0,78,0.00,,---,0.01,VWS V14.01,2013-10-04 13:47:00,
2013-10-04 08:48:00,74.7,67.4,29.62,South,180,4.0,15.0,78,0.00,,---,0.01,VWS V14.01,2013-10-04 13:48:00,
2013-10-04 08:49:00,74.7,67.4,29.62,South,179,3.0,15.0,78,0.00,,---,0.01,VWS V14.01,2013-10-04 13:49:00,
2013-10-04 08:50:00,74.9,67.2,29.62,SSE,155,5.0,9.0,77,0.00,,---,0.01,VWS V14.01,2013-10-04 13:50:00,
2013-10-04 08:51:00,75.1,67.4,29.62,SSE,153,6.0,10.0,77,0.00,,---,0.01,VWS V14.01,2013-10-04 13:51:00,
2013-10-04 08:52:00,75.1,67.4,29.62,SSE,157,3.0,10.0,77,0.00,,---,0.01,VWS V14.01,2013-10-04 13:52:00,
2013-10-04 08:53:00,75.1,67.4,29.62,SE,146,11.0,13.0,77,0.00,,---,0.01,VWS V14.01,2013-10-04 13:53:00,
2013-10-04 08:54:00,75.1,67.4,29.62,SSE,149,11.0,23.0,77,0.00,,---,0.01,VWS V14.01,2013-10-04 13:54:00,
2013-10-04 08:55:00,75.1,67.4,29.62,SSE,162,11.0,23.0,77,0.00,,---,0.01,VWS V14.01,2013-10-04 13:55:00,
2013-10-04 08:56:00,75.1,67.0,29.62,South,178,7.0,23.0,76,0.00,,---,0.01,VWS V14.01,2013-10-04 13:56:00,
2013-10-04 08:57:00,75.1,67.0,29.62,SE,145,5.0,23.0,76,0.00,,---,0.01,VWS V14.01,2013-10-04 13:57:00,
2013-10-04 08:58:00,75.1,67.0,29.62,SSE,168,6.0,23.0,76,0.00,,---,0.01,VWS V14.01,2013-10-04 13:58:00,
2013-10-04 08:59:00,75.1,67.4,29.62,South,173,5.0,23.0,77,0.00,,---,0.01,VWS V14.01,2013-10-04 13:59:00,
2013-10-04 09:00:00,75.1,67.4,29.62,SSE,149,10.0,12.0,77,0.00,,---,0.01,VWS V14.01,2013-10-04 14:00:00,
2013-10-04 09:01:00,75.1,67.4,29.62,SSE,154,6.0,12.0,77,0.00,,---,0.01,VWS V14.01,2013-10-04 14:01:00,
2013-10-04 09:02:00,75.1,67.4,29.62,SSE,149,20.0,21.0,77,0.00,,---,0.01,VWS V14.01,2013-10-04 14:02:00,
2013-10-04 09:03:00,75.1,67.4,29.62,SSE,151,12.0,21.0,77,0.00,,---,0.01,VWS V14.01,2013-10-04 14:03:00,
2013-10-04 09:04:00,75.1,67.4,29.62,SSE,157,10.0,21.0,77,0.00,,---,0.01,VWS V14.01,2013-10-04 14:04:00,
2013-10-04 09:05:00,75.1,67.4,29.62,SE,144,6.0,21.0,77,0.00,,---,0.01,VWS V14.01,2013-10-04 14:05:00,
2013-10-04 09:06:00,75.1,67.4,29.62,SSE,157,13.0,21.0,77,0.00,,---,0.01,VWS V14.01,2013-10-04 14:06:00,
2013-10-04 09:07:00,75.1,67.4,29.62,South,172,8.0,21.0,77,0.00,,---,0.01,VWS V14.01,2013-10-04 14:07:00,
2013-10-04 09:08:00,75.1,67.4,29.62,SE,145,12.0,21.0,77,0.00,,---,0.01,VWS V14.01,2013-10-04 14:08:00,
2013-10-04 09:09:00,75.1,67.4,29.62,SSE,162,2.0,21.0,77,0.00,,---,0.01,VWS V14.01,2013-10-04 14:09:00,
2013-10-04 09:10:00,75.1,67.4,29.62,SE,146,0.0,7.0,77,0.00,,---,0.01,VWS V14.01,2013-10-04 14:10:00,
2013-10-04 09:11:00,75.1,67.4,29.62,SSE,158,12.0,17.0,77,0.00,,---,0.01,VWS V14.01,2013-10-04 14:11:00,
2013-10-04 09:12:00,75.1,67.4,29.62,SSW,194,12.0,18.0,77,0.00,,---,0.01,VWS V14.01,2013-10-04 14:12:00,
2013-10-04 09:13:00,75.1,67.4,29.62,South,181,10.0,18.0,77,0.00,,---,0.01,VWS V14.01,2013-10-04 14:13:00,
2013-10-04 09:14:00,75.3,67.6,29.62,SSE,155,14.0,18.0,77,0.00,,---,0.01,VWS V14.01,2013-10-04 14:14:00,
2013-10-04 09:15:00,75.4,67.3,29.62,South,179,7.0,18.0,76,0.00,,---,0.01,VWS V14.01,2013-10-04 14:15:00,
2013-10-04 09:16:00,75.6,67.5,29.62,SE,138,17.0,18.0,76,0.00,,---,0.01,VWS V14.01,2013-10-04 14:16:00,
2013-10-04 09:17:00,75.6,67.5,29.62,SE,144,11.0,18.0,76,0.00,,---,0.01,VWS V14.01,2013-10-04 14:17:00,
2013-10-04 09:18:00,75.8,67.7,29.62,SE,146,6.0,18.0,76,0.00,,---,0.01,VWS V14.01,2013-10-04 14:18:00,
2013-10-04 09:19:00,75.8,67.3,29.62,SSE,155,18.0,18.0,75,0.00,,---,0.01,VWS V14.01,2013-10-04 14:19:00,
2013-10-04 09:20:00,75.8,67.3,29.62,South,176,6.0,11.0,75,0.00,,---,0.01,VWS V14.01,2013-10-04 14:20:00,
2013-10-04 09:22:00,75.8,67.3,29.62,SSE,157,6.0,11.0,75,0.00,,---,0.01,VWS V14.01,2013-10-04 14:22:00,
2013-10-04 09:23:00,75.8,67.3,29.62,SSE,156,7.0,12.0,75,0.00,,---,0.01,VWS V14.01,2013-10-04 14:23:00,
2013-10-04 09:24:00,75.8,67.3,29.62,SSW,194,10.0,17.0,75,0.00,,---,0.01,VWS V14.01,2013-10-04 14:24:00,
2013-10-04 09:25:00,75.6,67.1,29.62,South,186,14.0,23.0,75,0.00,,---,0.01,VWS V14.01,2013-10-04 14:25:00,
2013-10-04 09:27:00,75.4,66.9,29.62,SSE,159,7.0,23.0,75,0.00,,---,0.01,VWS V14.01,2013-10-04 14:27:00,
2013-10-04 09:28:00,75.4,67.3,29.62,South,173,5.0,23.0,76,0.00,,---,0.01,VWS V14.01,2013-10-04 14:28:00,
2013-10-04 09:29:00,75.3,67.2,29.62,SSE,160,6.0,23.0,76,0.00,,---,0.01,VWS V14.01,2013-10-04 14:29:00,
2013-10-04 09:31:00,75.1,67.0,29.62,SSE,152,13.0,17.0,76,0.00,,---,0.01,VWS V14.01,2013-10-04 14:31:00,
2013-10-04 09:32:00,75.1,67.0,29.62,SSE,160,7.0,18.0,76,0.00,,---,0.01,VWS V14.01,2013-10-04 14:32:00,
2013-10-04 09:33:00,75.1,67.4,29.62,SSW,192,3.0,18.0,77,0.00,,---,0.01,VWS V14.01,2013-10-04 14:33:00,
2013-10-04 09:34:00,75.1,67.4,29.62,SSE,155,4.0,18.0,77,0.00,,---,0.01,VWS V14.01,2013-10-04 14:34:00,
2013-10-04 09:36:00,75.3,67.6,29.62,SSE,157,9.0,18.0,77,0.00,,---,0.01,VWS V14.01,2013-10-04 14:36:00,
2013-10-04 09:37:00,75.3,67.2,29.62,SSE,163,7.0,18.0,76,0.00,,---,0.01,VWS V14.01,2013-10-04 14:37:00,
2013-10-04 09:38:00,75.4,67.3,29.62,SSE,153,11.0,18.0,76,0.00,,---,0.01,VWS V14.01,2013-10-04 14:38:00,
2013-10-04 09:39:00,75.4,67.3,29.62,SSE,150,13.0,20.0,76,0.00,,---,0.01,VWS V14.01,2013-10-04 14:39:00,
2013-10-04 09:41:00,75.8,67.7,29.62,South,172,6.0,16.0,76,0.00,,---,0.01,VWS V14.01,2013-10-04 14:41:00,
2013-10-04 09:42:00,75.8,67.7,29.62,SSE,159,6.0,16.0,76,0.00,,---,0.01,VWS V14.01,2013-10-04 14:42:00,
2013-10-04 09:43:00,76.0,67.9,29.62,SSE,161,12.0,19.0,76,0.00,,---,0.01,VWS V14.01,2013-10-04 14:43:00,
2013-10-04 09:44:00,76.0,67.5,29.62,SSE,155,12.0,19.0,75,0.00,,---,0.01,VWS V14.01,2013-10-04 14:44:00,
2013-10-04 09:46:00,76.1,67.6,29.62,SE,142,10.0,19.0,75,0.00,,---,0.01,VWS V14.01,2013-10-04 14:46:00,
2013-10-04 09:47:00,76.3,67.8,29.62,SE,143,5.0,19.0,75,0.00,,---,0.01,VWS V14.01,2013-10-04 14:47:00,
2013-10-04 09:48:00,76.3,67.8,29.62,SSW,192,13.0,19.0,75,0.00,,---,0.01,VWS V14.01,2013-10-04 14:48:00,
2013-10-04 09:49:00,76.3,67.4,29.62,SSE,153,15.0,19.0,74,0.00,,---,0.01,VWS V14.01,2013-10-04 14:49:00,
2013-10-04 09:51:00,76.5,67.2,29.62,South,175,14.0,21.0,73,0.00,,---,0.01,VWS V14.01,2013-10-04 14:51:00,
2013-10-04 09:52:00,76.5,67.2,29.62,South,170,15.0,21.0,73,0.00,,---,0.01,VWS V14.01,2013-10-04 14:52:00,
2013-10-04 09:53:00,76.5,67.2,29.62,SSE,166,15.0,21.0,73,0.00,,---,0.01,VWS V14.01,2013-10-04 14:53:00,
2013-10-04 09:54:00,76.5,67.2,29.62,South,169,9.0,21.0,73,0.00,,---,0.01,VWS V14.01,2013-10-04 14:54:00,
2013-10-04 09:56:00,76.7,67.4,29.62,SE,145,15.0,21.0,73,0.00,,---,0.01,VWS V14.01,2013-10-04 14:56:00,
2013-10-04 09:57:00,76.7,67.4,29.62,South,182,14.0,24.0,73,0.00,,---,0.01,VWS V14.01,2013-10-04 14:57:00,
2013-10-04 09:58:00,76.7,67.4,29.62,SSE,156,12.0,25.0,73,0.00,,---,0.01,VWS V14.01,2013-10-04 14:58:00,
2013-10-04 09:59:00,76.7,67.4,29.62,SSE,159,12.0,25.0,73,0.00,,---,0.01,VWS V14.01,2013-10-04 14:59:00,
2013-10-04 10:01:00,76.5,67.2,29.62,SSE,153,13.0,15.0,73,0.00,,---,0.01,VWS V14.01,2013-10-04 15:01:00,
2013-10-04 10:02:00,76.5,67.2,29.62,South,185,13.0,17.0,73,0.00,,---,0.01,VWS V14.01,2013-10-04 15:02:00,
2013-10-04 10:03:00,76.5,66.8,29.62,SE,129,9.0,23.0,72,0.00,,---,0.01,VWS V14.01,2013-10-04 15:03:00,
2013-10-04 10:04:00,76.7,67.4,29.62,South,186,15.0,23.0,73,0.00,,---,0.01,VWS V14.01,2013-10-04 15:04:00,
2013-10-04 10:06:00,76.8,67.1,29.62,SE,144,10.0,23.0,72,0.00,,---,0.01,VWS V14.01,2013-10-04 15:06:00,
2013-10-04 10:07:00,76.8,67.1,29.62,SE,140,19.0,23.0,72,0.00,,---,0.01,VWS V14.01,2013-10-04 15:07:00,
2013-10-04 10:08:00,76.8,67.1,29.62,SSE,159,16.0,23.0,72,0.00,,---,0.01,VWS V14.01,2013-10-04 15:08:00,
2013-10-04 10:09:00,77.0,67.3,29.62,SSE,152,18.0,23.0,72,0.00,,---,0.01,VWS V14.01,2013-10-04 15:09:00,
2013-10-04 10:12:00,77.0,67.3,29.62,SSE,161,6.0,23.0,72,0.00,,---,0.01,VWS V14.01,2013-10-04 15:12:00,
2013-10-04 10:13:00,77.2,67.1,29.62,SSE,154,5.0,23.0,71,0.00,,---,0.01,VWS V14.01,2013-10-04 15:13:00,
2013-10-04 10:14:00,77.2,67.1,29.62,SSW,192,6.0,23.0,71,0.00,,---,0.01,VWS V14.01,2013-10-04 15:14:00,
2013-10-04 10:17:00,77.4,67.7,29.62,South,178,7.0,23.0,72,0.00,,---,0.01,VWS V14.01,2013-10-04 15:17:00,
2013-10-04 10:18:00,77.4,67.3,29.62,SSE,163,11.0,23.0,71,0.00,,---,0.01,VWS V14.01,2013-10-04 15:18:00,
2013-10-04 10:19:00,77.4,67.3,29.62,South,181,12.0,23.0,71,0.00,,---,0.01,VWS V14.01,2013-10-04 15:19:00,
2013-10-04 10:22:00,77.6,67.5,29.62,SE,144,17.0,25.0,71,0.00,,---,0.01,VWS V14.01,2013-10-04 15:22:00,
2013-10-04 10:23:00,77.7,67.6,29.62,South,172,4.0,25.0,71,0.00,,---,0.01,VWS V14.01,2013-10-04 15:23:00,
2013-10-04 10:24:00,77.9,67.3,29.62,SE,137,14.0,27.0,70,0.00,,---,0.01,VWS V14.01,2013-10-04 15:24:00,
2013-10-04 10:27:00,78.1,67.5,29.62,SSE,163,13.0,27.0,70,0.00,,---,0.01,VWS V14.01,2013-10-04 15:27:00,
2013-10-04 10:28:00,78.1,67.1,29.62,SSE,164,6.0,27.0,69,0.00,,---,0.01,VWS V14.01,2013-10-04 15:28:00,
2013-10-04 10:29:00,78.1,67.1,29.62,South,183,15.0,27.0,69,0.00,,---,0.01,VWS V14.01,2013-10-04 15:29:00,
2013-10-04 10:32:00,77.9,67.3,29.62,South,174,21.0,29.0,70,0.00,,---,0.01,VWS V14.01,2013-10-04 15:32:00,
2013-10-04 10:33:00,77.9,67.3,29.62,South,169,6.0,29.0,70,0.00,,---,0.01,VWS V14.01,2013-10-04 15:33:00,
2013-10-04 10:34:00,78.1,67.1,29.62,SSE,160,16.0,29.0,69,0.00,,---,0.01,VWS V14.01,2013-10-04 15:34:00,
2013-10-04 10:37:00,78.3,67.3,29.62,SSE,157,12.0,31.0,69,0.00,,---,0.01,VWS V14.01,2013-10-04 15:37:00,
2013-10-04 10:38:00,78.5,67.1,29.62,South,175,11.0,31.0,68,0.00,,---,0.01,VWS V14.01,2013-10-04 15:38:00,
2013-10-04 10:39:00,78.6,67.2,29.62,SSE,159,12.0,31.0,68,0.00,,---,0.01,VWS V14.01,2013-10-04 15:39:00,
2013-10-04 10:42:00,78.8,66.9,29.62,South,188,19.0,21.0,67,0.00,,---,0.01,VWS V14.01,2013-10-04 15:42:00,
2013-10-04 10:43:00,78.8,67.4,29.62,SSE,152,12.0,23.0,68,0.00,,---,0.01,VWS V14.01,2013-10-04 15:43:00,
2013-10-04 10:44:00,78.8,66.9,29.62,South,190,13.0,23.0,67,0.00,,---,0.01,VWS V14.01,2013-10-04 15:44:00,
2013-10-04 10:45:00,78.8,66.9,29.62,South,190,19.0,23.0,67,0.00,,---,0.01,VWS V14.01,2013-10-04 15:45:00,
2013-10-04 10:47:00,78.8,66.9,29.62,SSW,196,9.0,26.0,67,0.01,,---,0.02,VWS V14.01,2013-10-04 15:47:00,
2013-10-04 10:48:00,78.8,66.9,29.62,South,186,6.0,36.0,67,0.01,,---,0.02,VWS V14.01,2013-10-04 15:48:00,
2013-10-04 10:49:00,78.8,66.9,29.62,South,186,15.0,36.0,67,0.01,,---,0.02,VWS V14.01,2013-10-04 15:49:00,
2013-10-04 10:50:00,78.8,66.9,29.62,South,186,15.0,36.0,67,0.01,,---,0.02,VWS V14.01,2013-10-04 15:50:00,
2013-10-04 10:52:00,78.8,66.9,29.62,SSE,148,19.0,25.0,67,0.01,,---,0.02,VWS V14.01,2013-10-04 15:52:00,
2013-10-04 10:53:00,78.8,66.9,29.62,South,178,5.0,25.0,67,0.01,,---,0.02,VWS V14.01,2013-10-04 15:53:00,
2013-10-04 10:54:00,78.8,66.9,29.62,SSE,165,16.0,25.0,67,0.01,,---,0.02,VWS V14.01,2013-10-04 15:54:00,
2013-10-04 10:55:00,78.8,66.9,29.62,SE,143,14.0,25.0,67,0.01,,---,0.02,VWS V14.01,2013-10-04 15:55:00,
2013-10-04 10:57:00,78.8,66.9,29.62,SSE,165,9.0,33.0,67,0.01,,---,0.02,VWS V14.01,2013-10-04 15:57:00,
2013-10-04 10:58:00,79.0,67.1,29.62,South,177,7.0,33.0,67,0.01,,---,0.02,VWS V14.01,2013-10-04 15:58:00,
2013-10-04 10:59:00,79.0,67.1,29.62,SSE,167,7.0,33.0,67,0.01,,---,0.02,VWS V14.01,2013-10-04 15:59:00,
2013-10-04 11:00:00,79.2,67.3,29.62,South,183,20.0,33.0,67,0.01,,---,0.02,VWS V14.01,2013-10-04 16:00:00,
2013-10-04 11:02:00,79.4,67.1,29.62,SSE,159,11.0,18.0,66,0.01,,---,0.02,VWS V14.01,2013-10-04 16:02:00,
2013-10-04 11:03:00,79.4,67.1,29.62,SSE,167,11.0,24.0,66,0.01,,---,0.02,VWS V14.01,2013-10-04 16:03:00,
2013-10-04 11:04:00,79.4,67.1,29.62,SSE,167,12.0,24.0,66,0.01,,---,0.02,VWS V14.01,2013-10-04 16:04:00,
2013-10-04 11:05:00,79.4,67.1,29.62,SSE,148,16.0,24.0,66,0.01,,---,0.02,VWS V14.01,2013-10-04 16:05:00,
2013-10-04 11:07:00,79.6,67.2,29.62,SSE,152,10.0,29.0,66,0.01,,---,0.02,VWS V14.01,2013-10-04 16:07:00,
2013-10-04 11:08:00,79.6,67.2,29.62,SSE,149,6.0,29.0,66,0.01,,---,0.02,VWS V14.01,2013-10-04 16:08:00,
2013-10-04 11:10:00,79.6,67.2,29.62,SSE,163,20.0,29.0,66,0.01,,---,0.02,VWS V14.01,2013-10-04 16:10:00,
2013-10-04 11:12:00,79.4,66.2,29.62,South,175,10.0,24.0,64,0.01,,---,0.02,VWS V14.01,2013-10-04 16:12:00,
2013-10-04 11:13:00,79.4,66.2,29.62,SSE,166,16.0,24.0,64,0.01,,---,0.02,VWS V14.01,2013-10-04 16:13:00,
2013-10-04 11:15:00,79.6,66.8,29.62,South,183,13.0,24.0,65,0.01,,---,0.02,VWS V14.01,2013-10-04 16:15:00,
2013-10-04 11:17:00,79.9,67.1,29.62,South,178,6.0,26.0,65,0.01,,---,0.02,VWS V14.01,2013-10-04 16:17:00,
2013-10-04 11:18:00,79.9,67.1,29.62,SSE,156,15.0,26.0,65,0.01,,---,0.02,VWS V14.01,2013-10-04 16:18:00,
2013-10-04 11:20:00,80.1,66.8,29.62,South,175,7.0,27.0,64,0.01,,---,0.02,VWS V14.01,2013-10-04 16:20:00,
2013-10-04 11:23:00,80.5,67.2,29.62,SSW,196,20.0,26.0,64,0.01,,---,0.02,VWS V14.01,2013-10-04 16:23:00,
2013-10-04 11:24:00,80.3,66.6,29.62,South,180,17.0,27.0,63,0.01,,---,0.02,VWS V14.01,2013-10-04 16:24:00,
2013-10-04 11:25:00,80.1,65.9,29.62,South,184,27.0,27.0,62,0.01,,---,0.02,VWS V14.01,2013-10-04 16:25:00,
2013-10-04 11:28:00,80.1,66.4,29.62,South,184,18.0,29.0,63,0.01,,---,0.02,VWS V14.01,2013-10-04 16:28:00,
2013-10-04 11:29:00,80.3,67.0,29.62,SSW,202,25.0,29.0,64,0.01,,---,0.02,VWS V14.01,2013-10-04 16:29:00,
2013-10-04 11:30:00,80.5,66.8,29.62,South,187,18.0,29.0,63,0.01,,---,0.02,VWS V14.01,2013-10-04 16:30:00,
2013-10-04 11:31:00,80.5,66.8,29.62,SSE,150,6.0,25.0,63,0.01,,---,0.02,VWS V14.01,2013-10-04 16:31:00,
2013-10-04 11:33:00,80.7,66.5,29.62,South,171,18.0,25.0,62,0.01,,---,0.02,VWS V14.01,2013-10-04 16:33:00,
2013-10-04 11:34:00,80.7,66.5,29.62,South,175,9.0,25.0,62,0.01,,---,0.02,VWS V14.01,2013-10-04 16:34:00,
2013-10-04 11:35:00,80.9,67.1,29.62,South,183,12.0,25.0,63,0.01,,---,0.02,VWS V14.01,2013-10-04 16:35:00,
2013-10-04 11:36:00,80.9,66.7,29.62,SSE,147,13.0,28.0,62,0.01,,---,0.02,VWS V14.01,2013-10-04 16:36:00,
2013-10-04 11:38:00,80.9,66.7,29.62,SSE,163,13.0,28.0,62,0.01,,---,0.02,VWS V14.01,2013-10-04 16:38:00,
2013-10-04 11:39:00,80.9,66.7,29.62,South,173,15.0,28.0,62,0.01,,---,0.02,VWS V14.01,2013-10-04 16:39:00,
2013-10-04 11:40:00,80.9,66.7,29.62,South,178,13.0,28.0,62,0.01,,---,0.02,VWS V14.01,2013-10-04 16:40:00,
2013-10-04 11:41:00,81.1,66.9,29.62,SSE,159,13.0,20.0,62,0.01,,---,0.02,VWS V14.01,2013-10-04 16:41:00,
2013-10-04 11:43:00,81.1,66.9,29.62,South,174,14.0,22.0,62,0.01,,---,0.02,VWS V14.01,2013-10-04 16:43:00,
2013-10-04 11:44:00,81.1,66.9,29.62,SSE,155,11.0,22.0,62,0.01,,---,0.02,VWS V14.01,2013-10-04 16:44:00,
2013-10-04 11:45:00,81.2,66.9,29.62,SSE,165,20.0,27.0,62,0.01,,---,0.02,VWS V14.01,2013-10-04 16:45:00,
2013-10-04 11:46:00,81.2,66.5,29.62,SSE,166,16.0,27.0,61,0.01,,---,0.02,VWS V14.01,2013-10-04 16:46:00,
2013-10-04 11:48:00,81.2,66.5,29.62,SSW,194,15.0,27.0,61,0.01,,---,0.02,VWS V14.01,2013-10-04 16:48:00,
2013-10-04 11:49:00,81.2,66.5,29.62,SSW,194,15.0,27.0,61,0.01,,---,0.02,VWS V14.01,2013-10-04 16:49:00,
2013-10-04 11:50:00,81.2,66.5,29.62,SSW,194,18.0,27.0,61,0.01,,---,0.02,VWS V14.01,2013-10-04 16:50:00,
2013-10-04 11:51:00,81.4,66.2,29.62,SSE,168,9.0,18.0,60,0.00,,---,0.02,VWS V14.01,2013-10-04 16:51:00,
2013-10-04 11:53:00,81.4,66.2,29.62,SSE,156,11.0,25.0,60,0.00,,---,0.02,VWS V14.01,2013-10-04 16:53:00,
2013-10-04 11:54:00,81.4,66.2,29.62,SSE,162,12.0,25.0,60,0.00,,---,0.02,VWS V14.01,2013-10-04 16:54:00,
2013-10-04 11:55:00,81.2,65.5,29.62,SSW,193,17.0,25.0,59,0.00,,---,0.02,VWS V14.01,2013-10-04 16:55:00,
2013-10-04 11:56:00,81.4,66.7,29.62,SE,146,6.0,25.0,61,0.00,,---,0.02,VWS V14.01,2013-10-04 16:56:00,
2013-10-04 11:59:00,81.6,66.9,29.62,SSE,165,21.0,28.0,61,0.00,,---,0.02,VWS V14.01,2013-10-04 16:59:00,
2013-10-04 12:00:00,81.6,65.9,29.62,South,182,11.0,28.0,59,0.00,,---,0.02,VWS V14.01,2013-10-04 17:00:00,
2013-10-04 12:02:00,81.6,65.9,29.62,SSE,148,15.0,20.0,59,0.00,,---,0.02,VWS V14.01,2013-10-04 17:02:00,
2013-10-04 12:04:00,81.8,66.6,29.62,SE,136,6.0,20.0,60,0.00,,---,0.02,VWS V14.01,2013-10-04 17:04:00,
2013-10-04 12:05:00,82.0,66.8,29.62,South,188,11.0,20.0,60,0.00,,---,0.02,VWS V14.01,2013-10-04 17:05:00,
2013-10-04 12:07:00,82.0,66.3,29.62,SSE,166,16.0,23.0,59,0.00,,---,0.02,VWS V14.01,2013-10-04 17:07:00,
2013-10-04 12:09:00,82.0,66.3,29.62,South,189,11.0,26.0,59,0.00,,---,0.02,VWS V14.01,2013-10-04 17:09:00,
2013-10-04 12:10:00,82.0,66.3,29.62,SSE,155,13.0,14.0,59,0.00,,---,0.02,VWS V14.01,2013-10-04 17:10:00,
2013-10-04 12:12:00,82.0,65.8,29.62,SSE,161,7.0,18.0,58,0.00,,---,0.02,VWS V14.01,2013-10-04 17:12:00,
2013-10-04 12:14:00,82.0,66.3,29.62,South,169,11.0,22.0,59,0.00,,---,0.02,VWS V14.01,2013-10-04 17:14:00,
2013-10-04 12:15:00,82.0,66.3,29.61,South,189,19.0,23.0,59,0.00,,---,0.02,VWS V14.01,2013-10-04 17:15:00,
2013-10-04 12:17:00,82.2,66.0,29.61,SSE,164,10.0,31.0,58,0.00,,---,0.02,VWS V14.01,2013-10-04 17:17:00,
2013-10-04 12:19:00,82.2,66.0,29.61,SSW,196,17.0,31.0,58,0.00,,---,0.02,VWS V14.01,2013-10-04 17:19:00,
2013-10-04 12:20:00,82.2,66.0,29.61,South,174,20.0,27.0,58,0.00,,---,0.02,VWS V14.01,2013-10-04 17:20:00,
2013-10-04 12:22:00,82.4,65.1,29.61,South,186,24.0,31.0,56,0.00,,---,0.02,VWS V14.01,2013-10-04 17:22:00,
2013-10-04 12:24:00,82.4,65.1,29.61,South,177,12.0,31.0,56,0.00,,---,0.02,VWS V14.01,2013-10-04 17:24:00,
2013-10-04 12:25:00,82.6,65.3,29.61,South,174,15.0,31.0,56,0.00,,---,0.02,VWS V14.01,2013-10-04 17:25:00,
2013-10-04 12:27:00,82.6,65.8,29.61,SSE,147,10.0,31.0,57,0.00,,---,0.02,VWS V14.01,2013-10-04 17:27:00,
2013-10-04 12:29:00,82.8,65.5,29.61,South,188,11.0,31.0,56,0.00,,---,0.02,VWS V14.01,2013-10-04 17:29:00,
2013-10-04 12:30:00,83.0,65.7,29.61,South,184,19.0,19.0,56,0.00,,---,0.02,VWS V14.01,2013-10-04 17:30:00,
2013-10-04 12:32:00,83.0,65.2,29.61,SSE,155,14.0,24.0,55,0.00,,---,0.02,VWS V14.01,2013-10-04 17:32:00,
2013-10-04 12:34:00,83.4,66.1,29.61,SSW,198,13.0,24.0,56,0.00,,---,0.02,VWS V14.01,2013-10-04 17:34:00,
2013-10-04 12:35:00,83.4,65.6,29.61,SW,215,13.0,24.0,55,0.00,,---,0.02,VWS V14.01,2013-10-04 17:35:00,
2013-10-04 12:37:00,83.4,65.6,29.61,SSW,194,14.0,27.0,55,0.00,,---,0.02,VWS V14.01,2013-10-04 17:37:00,
2013-10-04 13:00:00,84.3,64.8,29.61,SSE,168,11.0,27.0,52,0.00,,---,0.02,VWS V14.01,2013-10-04 18:00:00,
2013-10-04 13:03:00,84.1,65.1,29.61,South,177,9.0,20.0,53,0.00,,---,0.02,VWS V14.01,2013-10-04 18:03:00,
2013-10-04 13:05:00,84.3,65.3,29.61,South,189,11.0,20.0,53,0.00,,---,0.02,VWS V14.01,2013-10-04 18:05:00,
2013-10-04 13:09:00,84.7,64.0,29.61,South,187,17.0,25.0,50,0.00,,---,0.02,VWS V14.01,2013-10-04 18:09:00,
2013-10-04 13:10:00,84.7,64.0,29.61,SSE,157,12.0,25.0,50,0.00,,---,0.02,VWS V14.01,2013-10-04 18:10:00,
2013-10-04 13:11:00,84.7,64.6,29.61,SSE,164,6.0,14.0,51,0.00,,---,0.02,VWS V14.01,2013-10-04 18:11:00,
2013-10-04 13:14:00,84.5,64.4,29.61,South,171,6.0,25.0,51,0.00,,---,0.02,VWS V14.01,2013-10-04 18:14:00,
2013-10-04 13:15:00,84.5,64.4,29.61,SSE,165,15.0,25.0,51,0.00,,---,0.02,VWS V14.01,2013-10-04 18:15:00,
2013-10-04 13:16:00,84.5,64.4,29.61,South,182,10.0,25.0,51,0.00,,---,0.02,VWS V14.01,2013-10-04 18:16:00,
2013-10-04 13:19:00,84.5,64.4,29.61,SSE,157,11.0,25.0,51,0.00,,---,0.02,VWS V14.01,2013-10-04 18:19:00,
2013-10-04 13:20:00,84.5,64.4,29.61,SSE,151,6.0,25.0,51,0.00,,---,0.02,VWS V14.01,2013-10-04 18:20:00,
2013-10-04 13:21:00,84.5,64.4,29.61,South,176,9.0,15.0,51,0.00,,---,0.02,VWS V14.01,2013-10-04 18:21:00,
2013-10-04 13:25:00,84.9,64.2,29.61,South,172,18.0,21.0,50,0.00,,---,0.02,VWS V14.01,2013-10-04 18:25:00,
2013-10-04 13:26:00,85.1,64.4,29.61,South,177,17.0,21.0,50,0.00,,---,0.02,VWS V14.01,2013-10-04 18:26:00,
2013-10-04 13:30:00,85.3,62.2,29.60,South,190,12.0,23.0,46,0.00,,---,0.02,VWS V14.01,2013-10-04 18:30:00,
2013-10-04 13:31:00,85.3,64.0,29.60,South,177,10.0,15.0,49,0.00,,---,0.02,VWS V14.01,2013-10-04 18:31:00,
2013-10-04 13:35:00,85.5,64.2,29.60,South,175,25.0,25.0,49,0.00,,---,0.02,VWS V14.01,2013-10-04 18:35:00,
2013-10-04 13:36:00,85.5,63.6,29.60,SSE,168,18.0,25.0,48,0.00,,---,0.02,VWS V14.01,2013-10-04 18:36:00,
2013-10-04 13:40:00,85.5,63.0,29.60,SSW,207,15.0,27.0,47,0.00,,---,0.02,VWS V14.01,2013-10-04 18:40:00,
2013-10-04 13:41:00,85.5,63.0,29.60,SSW,196,21.0,25.0,47,0.00,,---,0.02,VWS V14.01,2013-10-04 18:41:00,
2013-10-04 13:42:00,85.5,63.0,29.60,SSW,202,17.0,25.0,47,0.00,,---,0.02,VWS V14.01,2013-10-04 18:42:00,
2013-10-04 13:45:00,85.5,63.6,29.60,South,186,24.0,25.0,48,0.00,,---,0.02,VWS V14.01,2013-10-04 18:45:00,
2013-10-04 13:46:00,85.5,63.6,29.60,South,169,11.0,25.0,48,0.00,,---,0.02,VWS V14.01,2013-10-04 18:46:00,
2013-10-04 13:47:00,85.5,63.6,29.60,South,182,12.0,27.0,48,0.00,,---,0.02,VWS V14.01,2013-10-04 18:47:00,
2013-10-04 13:50:00,85.7,63.2,29.60,South,190,27.0,27.0,47,0.00,,---,0.02,VWS V14.01,2013-10-04 18:50:00,
2013-10-04 13:51:00,85.7,63.2,29.60,SSW,207,23.0,27.0,47,0.00,,---,0.02,VWS V14.01,2013-10-04 18:51:00,
2013-10-04 13:52:00,85.5,63.6,29.60,SSW,204,12.0,27.0,48,0.00,,---,0.02,VWS V14.01,2013-10-04 18:52:00,
2013-10-04 13:55:00,85.7,64.4,29.60,SSW,197,15.0,27.0,49,0.00,,---,0.02,VWS V14.01,2013-10-04 18:55:00,
2013-10-04 13:56:00,85.9,64.0,29.60,SSW,204,13.0,27.0,48,0.00,,---,0.02,VWS V14.01,2013-10-04 18:56:00,
2013-10-04 13:57:00,85.9,64.0,29.60,SSW,206,9.0,27.0,48,0.00,,---,0.02,VWS V14.01,2013-10-04 18:57:00,
2013-10-04 14:00:00,86.3,63.7,29.60,South,191,11.0,11.0,47,0.00,,---,0.02,VWS V14.01,2013-10-04 19:00:00,
2013-10-04 14:01:00,86.3,63.7,29.60,South,176,7.0,23.0,47,0.00,,---,0.02,VWS V14.01,2013-10-04 19:01:00,
2013-10-04 14:02:00,86.5,63.9,29.60,SSW,207,15.0,23.0,47,0.00,,---,0.02,VWS V14.01,2013-10-04 19:02:00,
2013-10-04 14:05:00,86.7,64.1,29.60,South,188,10.0,23.0,47,0.00,,---,0.02,VWS V14.01,2013-10-04 19:05:00,
2013-10-04 14:06:00,86.7,63.5,29.60,SSE,157,12.0,23.0,46,0.00,,---,0.02,VWS V14.01,2013-10-04 19:06:00,
2013-10-04 14:07:00,86.7,63.5,29.60,South,187,11.0,23.0,46,0.00,,---,0.02,VWS V14.01,2013-10-04 19:07:00,
2013-10-04 14:10:00,86.7,63.5,29.60,South,190,17.0,17.0,46,0.00,,---,0.02,VWS V14.01,2013-10-04 19:10:00,
2013-10-04 14:11:00,86.7,63.5,29.60,SSW,197,16.0,17.0,46,0.00,,---,0.02,VWS V14.01,2013-10-04 19:11:00,
2013-10-04 14:12:00,86.7,61.5,29.60,SSW,202,23.0,28.0,43,0.00,,---,0.02,VWS V14.01,2013-10-04 19:12:00,
2013-10-04 14:15:00,86.7,62.8,29.60,SSW,192,9.0,29.0,45,0.00,,---,0.02,VWS V14.01,2013-10-04 19:15:00,
2013-10-04 14:16:00,86.7,62.8,29.60,SSW,200,13.0,29.0,45,0.00,,---,0.02,VWS V14.01,2013-10-04 19:16:00,
2013-10-04 14:17:00,87.0,62.5,29.60,South,177,13.0,29.0,44,0.00,,---,0.02,VWS V14.01,2013-10-04 19:17:00,
2013-10-04 14:21:00,87.2,62.7,29.60,South,190,18.0,23.0,44,0.00,,---,0.02,VWS V14.01,2013-10-04 19:21:00,
2013-10-04 14:22:00,87.2,62.7,29.60,South,190,25.0,25.0,44,0.00,,---,0.02,VWS V14.01,2013-10-04 19:22:00,
2013-10-04 14:26:00,87.2,62.0,29.60,SSW,198,14.0,26.0,43,0.00,,---,0.02,VWS V14.01,2013-10-04 19:26:00,
2013-10-04 14:27:00,87.4,62.2,29.60,SSW,202,13.0,26.0,43,0.00,,---,0.02,VWS V14.01,2013-10-04 19:27:00,
2013-10-04 14:31:00,87.4,61.5,29.59,SW,215,11.0,12.0,42,0.00,,---,0.02,VWS V14.01,2013-10-04 19:31:00,
2013-10-04 14:32:00,87.4,62.2,29.59,SSW,203,11.0,13.0,43,0.00,,---,0.02,VWS V14.01,2013-10-04 19:32:00,
2013-10-04 14:36:00,87.0,62.5,29.59,SSW,192,11.0,18.0,44,0.00,,---,0.02,VWS V14.01,2013-10-04 19:36:00,
2013-10-04 14:37:00,87.2,62.0,29.59,South,183,19.0,23.0,43,0.00,,---,0.02,VWS V14.01,2013-10-04 19:37:00,
2013-10-04 14:41:00,87.6,62.4,29.59,SSW,203,14.0,14.0,43,0.00,,---,0.02,VWS V14.01,2013-10-04 19:41:00,
2013-10-04 14:42:00,87.8,62.5,29.59,South,190,11.0,14.0,43,0.00,,---,0.02,VWS V14.01,2013-10-04 19:42:00,
2013-10-04 14:46:00,88.0,61.4,29.59,SSW,202,10.0,27.0,41,0.00,,---,0.02,VWS V14.01,2013-10-04 19:46:00,
2013-10-04 14:47:00,88.2,60.8,29.59,South,186,15.0,27.0,40,0.00,,---,0.02,VWS V14.01,2013-10-04 19:47:00,
2013-10-04 14:48:00,88.2,61.5,29.59,SSW,207,11.0,27.0,41,0.00,,---,0.02,VWS V14.01,2013-10-04 19:48:00,
2013-10-04 14:51:00,87.8,61.2,29.59,South,190,15.0,19.0,41,0.00,,---,0.02,VWS V14.01,2013-10-04 19:51:00,
2013-10-04 14:52:00,87.8,61.2,29.59,South,190,14.0,19.0,41,0.00,,---,0.02,VWS V14.01,2013-10-04 19:52:00,
2013-10-04 14:53:00,88.0,61.4,29.59,SSW,210,7.0,20.0,41,0.00,,---,0.02,VWS V14.01,2013-10-04 19:53:00,
2013-10-04 14:56:00,87.8,61.9,29.59,SSW,204,15.0,27.0,42,0.00,,---,0.02,VWS V14.01,2013-10-04 19:56:00,
2013-10-04 14:57:00,87.8,61.9,29.59,South,186,13.0,27.0,42,0.00,,---,0.02,VWS V14.01,2013-10-04 19:57:00,
2013-10-04 14:58:00,87.8,62.5,29.59,SSW,202,12.0,27.0,43,0.00,,---,0.02,VWS V14.01,2013-10-04 19:58:00,
2013-10-04 15:01:00,88.0,60.7,29.58,SSW,205,10.0,23.0,40,0.00,,---,0.02,VWS V14.01,2013-10-04 20:01:00,
2013-10-04 15:02:00,88.0,60.7,29.58,South,182,19.0,27.0,40,0.00,,---,0.02,VWS V14.01,2013-10-04 20:02:00,
2013-10-04 15:03:00,88.0,61.4,29.58,South,184,14.0,27.0,41,0.00,,---,0.02,VWS V14.01,2013-10-04 20:03:00,
2013-10-04 15:06:00,88.0,62.0,29.58,SSW,204,9.0,27.0,42,0.00,,---,0.02,VWS V14.01,2013-10-04 20:06:00,
2013-10-04 15:07:00,88.2,62.2,29.58,SSW,193,15.0,27.0,42,0.00,,---,0.02,VWS V14.01,2013-10-04 20:07:00,
2013-10-04 15:09:00,88.2,61.5,29.58,South,177,7.0,27.0,41,0.00,,---,0.02,VWS V14.01,2013-10-04 20:09:00,
2013-10-04 15:11:00,88.0,61.4,29.58,SSE,167,6.0,18.0,41,0.00,,---,0.02,VWS V14.01,2013-10-04 20:11:00,
2013-10-04 15:12:00,88.0,61.4,29.58,SSE,166,9.0,18.0,41,0.00,,---,0.02,VWS V14.01,2013-10-04 20:12:00,
2013-10-04 15:14:00,87.8,61.2,29.58,South,173,9.0,21.0,41,0.00,,---,0.02,VWS V14.01,2013-10-04 20:14:00,
2013-10-04 15:16:00,87.6,61.0,29.58,South,187,12.0,21.0,41,0.00,,---,0.02,VWS V14.01,2013-10-04 20:16:00,
2013-10-04 15:17:00,87.6,61.0,29.58,South,185,19.0,21.0,41,0.00,,---,0.02,VWS V14.01,2013-10-04 20:17:00,
2013-10-04 15:19:00,87.4,61.5,29.58,South,180,20.0,23.0,42,0.00,,---,0.02,VWS V14.01,2013-10-04 20:19:00,
2013-10-04 15:21:00,87.2,60.7,29.58,South,182,17.0,18.0,41,0.00,,---,0.02,VWS V14.01,2013-10-04 20:21:00,
2013-10-04 15:22:00,87.2,60.7,29.58,South,188,15.0,20.0,41,0.00,,---,0.02,VWS V14.01,2013-10-04 20:22:00,
2013-10-04 15:24:00,86.7,60.9,29.58,SSW,193,7.0,22.0,42,0.00,,---,0.02,VWS V14.01,2013-10-04 20:24:00,
2013-10-04 15:26:00,86.5,61.4,29.58,South,171,8.0,22.0,43,0.00,,---,0.02,VWS V14.01,2013-10-04 20:26:00,
2013-10-04 15:27:00,86.5,61.4,29.58,South,175,10.0,22.0,43,0.00,,---,0.02,VWS V14.01,2013-10-04 20:27:00,
2013-10-04 15:29:00,86.3,61.2,29.57,SSW,200,7.0,22.0,43,0.00,,---,0.02,VWS V14.01,2013-10-04 20:29:00,
2013-10-04 15:32:00,86.3,61.2,29.57,SW,225,13.0,15.0,43,0.00,,---,0.02,VWS V14.01,2013-10-04 20:32:00,
2013-10-04 15:34:00,85.1,52.8,29.57,WSW,248,13.0,18.0,33,0.00,,---,0.02,VWS V14.01,2013-10-04 20:34:00,
2013-10-04 15:37:00,82.6,54.5,29.57,WSW,249,12.0,18.0,38,0.02,,---,0.04,VWS V14.01,2013-10-04 20:37:00,
2013-10-04 15:39:00,76.5,49.0,29.57,SW,231,22.0,24.0,38,0.08,,---,0.10,VWS V14.01,2013-10-04 20:39:00,
2013-10-04 15:42:00,72.7,65.1,29.57,South,189,28.0,46.0,77,0.17,,---,0.19,VWS V14.01,2013-10-04 20:42:00,
2013-10-04 15:44:00,69.6,63.9,29.65,NW,320,4.0,46.0,82,0.33,,---,0.35,VWS V14.01,2013-10-04 20:44:00,
2013-10-04 15:47:00,67.9,63.2,29.65,NE,36,0.0,46.0,85,0.34,,---,0.36,VWS V14.01,2013-10-04 20:47:00,
2013-10-04 15:48:00,67.8,62.1,29.65,ENE,57,4.0,46.0,82,0.34,,---,0.36,VWS V14.01,2013-10-04 20:48:00,
2013-10-04 15:49:00,67.1,61.8,29.65,ENE,76,0.0,46.0,83,0.34,,---,0.36,VWS V14.01,2013-10-04 20:49:00,
2013-10-04 15:52:00,67.3,63.0,29.65,SSW,206,5.0,15.0,86,0.35,,---,0.37,VWS V14.01,2013-10-04 20:52:00,
2013-10-04 15:53:00,67.4,63.1,29.65,SSW,202,6.0,15.0,86,0.35,,---,0.37,VWS V14.01,2013-10-04 20:53:00,
2013-10-04 15:54:00,67.8,64.1,29.65,SSW,203,5.0,15.0,88,0.35,,---,0.37,VWS V14.01,2013-10-04 20:54:00,
2013-10-04 15:57:00,67.6,63.6,29.65,SSW,208,6.0,15.0,87,0.35,,---,0.37,VWS V14.01,2013-10-04 20:57:00,
2013-10-04 15:58:00,67.6,63.3,29.65,SSW,209,5.0,15.0,86,0.35,,---,0.37,VWS V14.01,2013-10-04 20:58:00,
2013-10-04 15:59:00,67.6,63.3,29.64,SSW,209,4.0,15.0,86,0.35,,---,0.37,VWS V14.01,2013-10-04 20:59:00,
2013-10-04 16:02:00,67.8,62.8,29.64,SSW,209,2.0,5.0,84,0.35,,---,0.37,VWS V14.01,2013-10-04 21:02:00,
2013-10-04 16:03:00,67.9,63.6,29.64,SSW,209,2.0,5.0,86,0.35,,---,0.37,VWS V14.01,2013-10-04 21:03:00,
2013-10-04 16:04:00,68.3,64.0,29.64,SSW,209,0.0,5.0,86,0.35,,---,0.37,VWS V14.01,2013-10-04 21:04:00,
2013-10-04 16:07:00,68.9,63.9,29.64,SSW,209,3.0,5.0,84,0.35,,---,0.37,VWS V14.01,2013-10-04 21:07:00,
2013-10-04 16:08:00,69.1,64.1,29.64,SSW,209,4.0,5.0,84,0.35,,---,0.37,VWS V14.01,2013-10-04 21:08:00,
2013-10-04 16:10:00,69.6,64.6,29.64,SSW,209,4.0,5.0,84,0.35,,---,0.37,VWS V14.01,2013-10-04 21:10:00,
2013-10-04 16:12:00,70.1,65.4,29.64,SSW,209,3.0,5.0,85,0.35,,---,0.37,VWS V14.01,2013-10-04 21:12:00,
2013-10-04 16:13:00,70.3,65.6,29.64,SSW,209,4.0,5.0,85,0.35,,---,0.37,VWS V14.01,2013-10-04 21:13:00,
2013-10-04 16:15:00,70.4,65.0,29.63,SSW,209,5.0,6.0,83,0.35,,---,0.37,VWS V14.01,2013-10-04 21:15:00,
2013-10-04 16:17:00,71.1,66.0,29.63,SSW,209,4.0,6.0,84,0.35,,---,0.37,VWS V14.01,2013-10-04 21:17:00,
2013-10-04 16:18:00,71.3,66.2,29.63,SSW,209,3.0,6.0,84,0.35,,---,0.37,VWS V14.01,2013-10-04 21:18:00,
2013-10-04 16:19:00,71.3,66.2,29.63,SSW,209,5.0,6.0,84,0.35,,---,0.37,VWS V14.01,2013-10-04 21:19:00,
2013-10-04 16:20:00,71.3,65.2,29.63,SSW,209,4.0,4.0,81,0.35,,---,0.37,VWS V14.01,2013-10-04 21:20:00,
2013-10-04 16:22:00,71.1,64.3,29.63,SSW,209,4.0,5.0,79,0.35,,---,0.37,VWS V14.01,2013-10-04 21:22:00,
2013-10-04 16:23:00,71.3,64.5,29.63,SSW,209,4.0,5.0,79,0.35,,---,0.37,VWS V14.01,2013-10-04 21:23:00,
2013-10-04 16:24:00,71.3,64.5,29.63,SSW,209,3.0,5.0,79,0.35,,---,0.37,VWS V14.01,2013-10-04 21:24:00,
2013-10-04 16:25:00,71.8,64.6,29.63,SSW,209,4.0,5.0,78,0.35,,---,0.37,VWS V14.01,2013-10-04 21:25:00,
2013-10-04 16:27:00,72.3,65.8,29.63,SSW,209,4.0,5.0,80,0.35,,---,0.37,VWS V14.01,2013-10-04 21:27:00,
2013-10-04 16:28:00,72.8,65.9,29.63,SSW,209,2.0,5.0,79,0.35,,---,0.37,VWS V14.01,2013-10-04 21:28:00,
2013-10-04 16:29:00,73.0,66.1,29.63,SSW,209,3.0,5.0,79,0.35,,---,0.37,VWS V14.01,2013-10-04 21:29:00,
2013-10-04 16:30:00,73.3,65.3,29.63,SSW,209,3.0,4.0,76,0.35,,---,0.37,VWS V14.01,2013-10-04 21:30:00,
2013-10-04 16:32:00,73.7,64.1,29.63,SSW,209,3.0,5.0,72,0.35,,---,0.37,VWS V14.01,2013-10-04 21:32:00,
2013-10-04 16:33:00,74.0,63.6,29.63,SSW,209,1.0,5.0,70,0.35,,---,0.37,VWS V14.01,2013-10-04 21:33:00,
2013-10-04 16:34:00,74.2,63.8,29.63,SSW,209,2.0,5.0,70,0.35,,---,0.37,VWS V14.01,2013-10-04 21:34:00,
2013-10-04 16:36:00,74.6,64.2,29.63,SW,231,4.0,9.0,70,0.35,,---,0.37,VWS V14.01,2013-10-04 21:36:00,
2013-10-04 16:37:00,75.1,58.3,29.63,SW,235,5.0,9.0,56,0.35,,---,0.37,VWS V14.01,2013-10-04 21:37:00,
2013-10-04 16:38:00,75.4,58.1,29.63,SW,236,7.0,9.0,55,0.35,,---,0.37,VWS V14.01,2013-10-04 21:38:00,
2013-10-04 16:39:00,75.6,58.3,29.63,WSW,244,4.0,10.0,55,0.35,,---,0.37,VWS V14.01,2013-10-04 21:39:00,
2013-10-04 16:41:00,76.0,56.0,29.63,WSW,246,4.0,7.0,50,0.26,,---,0.37,VWS V14.01,2013-10-04 21:41:00,
2013-10-04 16:43:00,76.5,56.5,29.63,West,260,4.0,7.0,50,0.26,,---,0.37,VWS V14.01,2013-10-04 21:43:00,
2013-10-04 16:44:00,76.7,54.4,29.63,WSW,254,7.0,10.0,46,0.26,,---,0.37,VWS V14.01,2013-10-04 21:44:00,
2013-10-04 16:46:00,77.4,54.4,29.64,WNW,285,6.0,10.0,45,0.26,,---,0.37,VWS V14.01,2013-10-04 21:46:00,
2013-10-04 16:48:00,78.1,55.7,29.64,WNW,297,4.0,10.0,46,0.26,,---,0.37,VWS V14.01,2013-10-04 21:48:00,
2013-10-04 16:49:00,78.3,55.8,29.64,WNW,284,3.0,10.0,46,0.26,,---,0.37,VWS V14.01,2013-10-04 21:49:00,
2013-10-04 16:51:00,78.8,56.9,29.64,West,275,5.0,6.0,47,0.00,,---,0.37,VWS V14.01,2013-10-04 21:51:00,
2013-10-04 16:53:00,79.2,57.2,29.64,West,271,7.0,15.0,47,0.00,,---,0.37,VWS V14.01,2013-10-04 21:53:00,
2013-10-04 16:54:00,79.4,56.8,29.64,WNW,284,3.0,17.0,46,0.00,,---,0.37,VWS V14.01,2013-10-04 21:54:00,
2013-10-04 16:56:00,79.8,57.8,29.64,West,278,0.0,17.0,47,0.00,,---,0.37,VWS V14.01,2013-10-04 21:56:00,
2013-10-04 16:58:00,79.8,57.8,29.64,West,271,5.0,18.0,47,0.00,,---,0.37,VWS V14.01,2013-10-04 21:58:00,
2013-10-04 16:59:00,79.9,57.3,29.64,WNW,284,9.0,18.0,46,0.00,,---,0.37,VWS V14.01,2013-10-04 21:59:00,
2013-10-04 17:00:00,79.8,57.2,29.64,West,273,4.0,18.0,46,0.00,,---,0.37,VWS V14.01,2013-10-04 22:00:00,
2013-10-04 17:01:00,79.9,57.3,29.64,West,274,9.0,9.0,46,0.00,,---,0.37,VWS V14.01,2013-10-04 22:01:00,
2013-10-04 17:03:00,79.8,57.2,29.64,West,281,11.0,13.0,46,0.00,,---,0.37,VWS V14.01,2013-10-04 22:03:00,
2013-10-04 17:04:00,79.8,57.8,29.64,West,281,4.0,13.0,47,0.00,,---,0.37,VWS V14.01,2013-10-04 22:04:00,
2013-10-04 17:05:00,79.8,57.8,29.64,West,278,3.0,13.0,47,0.00,,---,0.37,VWS V14.01,2013-10-04 22:05:00,
2013-10-04 17:06:00,79.8,57.8,29.64,WNW,283,3.0,13.0,47,0.00,,---,0.37,VWS V14.01,2013-10-04 22:06:00,
2013-10-04 17:08:00,79.8,57.2,29.64,West,269,4.0,14.0,46,0.00,,---,0.37,VWS V14.01,2013-10-04 22:08:00,
2013-10-04 17:09:00,79.8,57.8,29.64,West,261,6.0,14.0,47,0.00,,---,0.37,VWS V14.01,2013-10-04 22:09:00,
2013-10-04 17:10:00,79.8,57.2,29.64,WSW,257,6.0,14.0,46,0.00,,---,0.37,VWS V14.01,2013-10-04 22:10:00,
2013-10-04 17:11:00,79.8,57.2,29.64,West,278,5.0,9.0,46,0.00,,---,0.37,VWS V14.01,2013-10-04 22:11:00,
2013-10-04 17:13:00,79.8,57.2,29.64,WSW,248,10.0,16.0,46,0.00,,---,0.37,VWS V14.01,2013-10-04 22:13:00,
2013-10-04 17:14:00,79.8,57.2,29.64,West,281,4.0,18.0,46,0.00,,---,0.37,VWS V14.01,2013-10-04 22:14:00,
2013-10-04 17:15:00,79.6,57.0,29.64,West,273,11.0,18.0,46,0.00,,---,0.37,VWS V14.01,2013-10-04 22:15:00,
2013-10-04 17:16:00,79.6,57.0,29.64,West,269,6.0,20.0,46,0.01,,---,0.38,VWS V14.01,2013-10-04 22:16:00,
2013-10-04 17:18:00,79.6,56.4,29.64,WNW,285,5.0,20.0,45,0.01,,---,0.38,VWS V14.01,2013-10-04 22:18:00,
2013-10-04 17:19:00,79.4,56.8,29.64,West,273,4.0,20.0,46,0.01,,---,0.38,VWS V14.01,2013-10-04 22:19:00,
2013-10-04 17:20:00,79.4,56.2,29.64,West,280,12.0,20.0,45,0.01,,---,0.38,VWS V14.01,2013-10-04 22:20:00,
2013-10-04 17:21:00,79.4,56.2,29.64,WSW,242,7.0,19.0,45,0.01,,---,0.38,VWS V14.01,2013-10-04 22:21:00,
2013-10-04 17:23:00,79.2,56.0,29.64,West,281,7.0,19.0,45,0.01,,---,0.38,VWS V14.01,2013-10-04 22:23:00,
2013-10-04 17:24:00,79.0,55.9,29.64,WNW,288,3.0,19.0,45,0.01,,---,0.38,VWS V14.01,2013-10-04 22:24:00,
2013-10-04 17:25:00,79.0,55.9,29.64,WNW,288,4.0,19.0,45,0.01,,---,0.38,VWS V14.01,2013-10-04 22:25:00,
2013-10-04 17:26:00,79.0,55.9,29.64,West,276,5.0,19.0,45,0.01,,---,0.38,VWS V14.01,2013-10-04 22:26:00,
2013-10-04 17:28:00,78.8,55.7,29.64,West,272,6.0,19.0,45,0.01,,---,0.38,VWS V14.01,2013-10-04 22:28:00,
2013-10-04 17:29:00,78.6,55.5,29.65,West,281,4.0,19.0,45,0.01,,---,0.38,VWS V14.01,2013-10-04 22:29:00,
2013-10-04 17:30:00,78.6,55.5,29.65,WNW,292,4.0,5.0,45,0.01,,---,0.38,VWS V14.01,2013-10-04 22:30:00,
2013-10-04 17:31:00,78.6,55.5,29.65,West,273,6.0,13.0,45,0.01,,---,0.38,VWS V14.01,2013-10-04 22:31:00,
2013-10-04 17:33:00,78.5,56.0,29.65,West,274,3.0,16.0,46,0.01,,---,0.38,VWS V14.01,2013-10-04 22:33:00,
2013-10-04 17:34:00,78.5,56.0,29.65,WNW,290,2.0,16.0,46,0.01,,---,0.38,VWS V14.01,2013-10-04 22:34:00,
2013-10-04 17:35:00,78.5,56.0,29.65,West,278,10.0,16.0,46,0.01,,---,0.38,VWS V14.01,2013-10-04 22:35:00,
2013-10-04 17:36:00,78.5,56.0,29.65,West,272,4.0,16.0,46,0.01,,---,0.38,VWS V14.01,2013-10-04 22:36:00,
2013-10-04 17:38:00,78.5,57.2,29.65,West,275,3.0,16.0,48,0.01,,---,0.38,VWS V14.01,2013-10-04 22:38:00,
2013-10-04 17:39:00,78.3,56.4,29.65,WSW,257,4.0,16.0,47,0.01,,---,0.38,VWS V14.01,2013-10-04 22:39:00,
2013-10-04 17:40:00,78.3,56.4,29.65,West,269,6.0,6.0,47,0.01,,---,0.38,VWS V14.01,2013-10-04 22:40:00,
2013-10-04 17:41:00,78.1,55.7,29.65,NW,306,6.0,7.0,46,0.01,,---,0.38,VWS V14.01,2013-10-04 22:41:00,
2013-10-04 17:43:00,77.9,56.1,29.65,West,277,3.0,11.0,47,0.01,,---,0.38,VWS V14.01,2013-10-04 22:43:00,
2013-10-04 17:45:00,77.9,56.1,29.68,West,277,2.0,11.0,47,0.01,,---,0.38,VWS V14.01,2013-10-04 22:45:00,
2013-10-04 17:46:00,77.7,56.5,29.68,West,277,2.0,11.0,48,0.01,,---,0.38,VWS V14.01,2013-10-04 22:46:00,
2013-10-04 17:47:00,77.7,56.5,29.68,WNW,294,2.0,11.0,48,0.01,,---,0.38,VWS V14.01,2013-10-04 22:47:00,
2013-10-04 17:48:00,77.7,56.5,29.68,WNW,290,4.0,11.0,48,0.01,,---,0.38,VWS V14.01,2013-10-04 22:48:00,
2013-10-04 17:50:00,77.6,56.4,29.68,West,267,6.0,11.0,48,0.01,,---,0.38,VWS V14.01,2013-10-04 22:50:00,
2013-10-04 17:52:00,77.4,55.0,29.68,West,268,11.0,18.0,46,0.01,,---,0.38,VWS V14.01,2013-10-04 22:52:00,
2013-10-04 17:53:00,77.2,56.0,29.68,WNW,292,4.0,18.0,48,0.01,,---,0.38,VWS V14.01,2013-10-04 22:53:00,
2013-10-04 17:55:00,77.0,55.2,29.68,West,281,9.0,18.0,47,0.01,,---,0.38,VWS V14.01,2013-10-04 22:55:00,
2013-10-04 17:56:00,76.8,55.1,29.68,West,280,5.0,18.0,47,0.01,,---,0.38,VWS V14.01,2013-10-04 22:56:00,
2013-10-04 17:57:00,76.7,55.0,29.68,West,263,6.0,18.0,47,0.01,,---,0.38,VWS V14.01,2013-10-04 22:57:00,
2013-10-04 17:58:00,76.5,54.8,29.68,West,267,5.0,18.0,47,0.01,,---,0.38,VWS V14.01,2013-10-04 22:58:00,
2013-10-04 18:00:00,76.5,55.4,29.71,West,274,6.0,18.0,48,0.01,,---,0.38,VWS V14.01,2013-10-04 23:00:00,
2013-10-04 18:01:00,76.3,54.6,29.71,West,273,2.0,6.0,47,0.01,,---,0.38,VWS V14.01,2013-10-04 23:01:00,
2013-10-04 18:02:00,76.3,54.6,29.71,WSW,243,3.0,14.0,47,0.01,,---,0.38,VWS V14.01,2013-10-04 23:02:00,
2013-10-04 18:03:00,76.1,55.0,29.71,WSW,243,2.0,14.0,48,0.01,,---,0.38,VWS V14.01,2013-10-04 23:03:00,
2013-10-04 18:04:00,76.1,55.0,29.71,WSW,243,2.0,14.0,48,0.01,,---,0.38,VWS V14.01,2013-10-04 23:04:00,
2013-10-04 18:05:00,76.1,55.6,29.71,West,279,4.0,14.0,49,0.01,,---,0.38,VWS V14.01,2013-10-04 23:05:00,
2013-10-04 18:06:00,76.0,55.5,29.71,West,279,2.0,14.0,49,0.01,,---,0.38,VWS V14.01,2013-10-04 23:06:00,
2013-10-04 18:07:00,76.0,55.5,29.71,West,277,4.0,14.0,49,0.01,,---,0.38,VWS V14.01,2013-10-04 23:07:00,
2013-10-04 18:08:00,75.8,55.3,29.71,WNW,286,3.0,14.0,49,0.01,,---,0.38,VWS V14.01,2013-10-04 23:08:00,
2013-10-04 18:09:00,75.8,55.3,29.71,WNW,286,4.0,14.0,49,0.01,,---,0.38,VWS V14.01,2013-10-04 23:09:00,
2013-10-04 18:10:00,75.8,54.7,29.71,WNW,283,3.0,15.0,48,0.01,,---,0.38,VWS V14.01,2013-10-04 23:10:00,
2013-10-04 18:11:00,75.6,54.5,29.71,WNW,283,4.0,5.0,48,0.01,,---,0.38,VWS V14.01,2013-10-04 23:11:00,
2013-10-04 18:12:00,75.6,54.5,29.71,WSW,252,10.0,16.0,48,0.01,,---,0.38,VWS V14.01,2013-10-04 23:12:00,
2013-10-04 18:13:00,75.3,54.3,29.71,WNW,288,10.0,20.0,48,0.01,,---,0.38,VWS V14.01,2013-10-04 23:13:00,
2013-10-04 18:14:00,75.3,54.3,29.71,WSW,257,10.0,20.0,48,0.01,,---,0.38,VWS V14.01,2013-10-04 23:14:00,
2013-10-04 18:15:00,75.1,53.5,29.73,West,269,6.0,21.0,47,0.01,,---,0.38,VWS V14.01,2013-10-04 23:15:00,
2013-10-04 18:16:00,74.9,53.3,29.73,WNW,286,12.0,21.0,47,0.01,,---,0.38,VWS V14.01,2013-10-04 23:16:00,
2013-10-04 18:17:00,74.6,53.1,29.73,West,270,3.0,21.0,47,0.01,,---,0.38,VWS V14.01,2013-10-04 23:17:00,
2013-10-04 18:18:00,74.4,53.5,29.73,West,274,5.0,21.0,48,0.01,,---,0.38,VWS V14.01,2013-10-04 23:18:00,
2013-10-04 18:19:00,74.2,53.3,29.73,WNW,296,4.0,21.0,48,0.01,,---,0.38,VWS V14.01,2013-10-04 23:19:00,
2013-10-04 18:20:00,74.0,53.1,29.73,WNW,283,17.0,21.0,48,0.01,,---,0.38,VWS V14.01,2013-10-04 23:20:00,
2013-10-04 18:21:00,73.9,52.4,29.73,WNW,288,10.0,16.0,47,0.00,,---,0.38,VWS V14.01,2013-10-04 23:21:00,
2013-10-04 18:23:00,73.5,52.6,29.73,WNW,286,5.0,16.0,48,0.00,,---,0.38,VWS V14.01,2013-10-04 23:23:00,
2013-10-04 18:24:00,73.5,52.6,29.73,West,279,1.0,16.0,48,0.00,,---,0.38,VWS V14.01,2013-10-04 23:24:00,
2013-10-04 18:25:00,73.3,52.5,29.73,WNW,288,5.0,16.0,48,0.00,,---,0.38,VWS V14.01,2013-10-04 23:25:00,
2013-10-04 18:26:00,73.2,52.4,29.73,WNW,288,2.0,16.0,48,0.00,,---,0.38,VWS V14.01,2013-10-04 23:26:00,
2013-10-04 18:28:00,73.0,52.2,29.73,West,281,2.0,16.0,48,0.00,,---,0.38,VWS V14.01,2013-10-04 23:28:00,
2013-10-04 18:29:00,73.0,52.2,29.73,West,280,3.0,16.0,48,0.00,,---,0.38,VWS V14.01,2013-10-04 23:29:00,
2013-10-04 18:30:00,73.0,51.6,29.76,WNW,295,3.0,16.0,47,0.00,,---,0.38,VWS V14.01,2013-10-04 23:30:00,
2013-10-04 18:31:00,73.0,52.2,29.76,WNW,295,1.0,4.0,48,0.00,,---,0.38,VWS V14.01,2013-10-04 23:31:00,
2013-10-04 18:33:00,72.8,52.0,29.76,WSW,247,4.0,7.0,48,0.00,,---,0.38,VWS V14.01,2013-10-04 23:33:00,
2013-10-04 18:34:00,72.8,52.0,29.76,WSW,248,2.0,7.0,48,0.00,,---,0.38,VWS V14.01,2013-10-04 23:34:00,
2013-10-04 18:35:00,72.7,51.9,29.76,West,263,1.0,7.0,48,0.00,,---,0.38,VWS V14.01,2013-10-04 23:35:00,
2013-10-04 18:36:00,72.7,51.9,29.76,West,267,4.0,10.0,48,0.00,,---,0.38,VWS V14.01,2013-10-04 23:36:00,
2013-10-04 18:38:00,72.5,51.2,29.76,West,269,5.0,12.0,47,0.00,,---,0.38,VWS V14.01,2013-10-04 23:38:00,
2013-10-04 18:39:00,72.5,51.2,29.76,West,272,14.0,15.0,47,0.00,,---,0.38,VWS V14.01,2013-10-04 23:39:00,
2013-10-04 18:40:00,72.5,51.7,29.76,West,281,8.0,8.0,48,0.00,,---,0.38,VWS V14.01,2013-10-04 23:40:00,
2013-10-04 18:41:00,72.5,51.2,29.76,West,268,10.0,14.0,47,0.00,,---,0.38,VWS V14.01,2013-10-04 23:41:00,
2013-10-04 18:43:00,72.3,51.0,29.76,WSW,255,9.0,14.0,47,0.00,,---,0.38,VWS V14.01,2013-10-04 23:43:00,
2013-10-04 18:44:00,72.1,50.8,29.76,West,279,1.0,16.0,47,0.00,,---,0.38,VWS V14.01,2013-10-04 23:44:00,
2013-10-04 18:45:00,72.1,50.8,29.77,West,272,13.0,16.0,47,0.00,,---,0.38,VWS V14.01,2013-10-04 23:45:00,
2013-10-04 18:46:00,72.0,50.7,29.77,West,277,10.0,16.0,47,0.00,,---,0.38,VWS V14.01,2013-10-04 23:46:00,
2013-10-04 18:48:00,71.8,50.5,29.77,West,281,7.0,16.0,47,0.00,,---,0.38,VWS V14.01,2013-10-04 23:48:00,
2013-10-04 18:49:00,71.8,49.9,29.77,West,281,2.0,16.0,46,0.00,,---,0.38,VWS V14.01,2013-10-04 23:49:00,
2013-10-04 18:50:00,71.6,49.8,29.77,NW,306,3.0,9.0,46,0.00,,---,0.38,VWS V14.01,2013-10-04 23:50:00,
2013-10-04 18:51:00,71.6,50.3,29.77,West,277,3.0,11.0,47,0.00,,---,0.38,VWS V14.01,2013-10-04 23:51:00,
2013-10-04 18:53:00,71.3,50.0,29.77,NW,304,10.0,15.0,47,0.00,,---,0.38,VWS V14.01,2013-10-04 23:53:00,
2013-10-04 18:54:00,71.3,50.0,29.77,West,273,10.0,16.0,47,0.00,,---,0.38,VWS V14.01,2013-10-04 23:54:00,
2013-10-04 18:55:00,70.9,49.1,29.77,West,281,5.0,16.0,46,0.00,,---,0.38,VWS V14.01,2013-10-04 23:55:00,
2013-10-04 18:56:00,70.9,48.5,29.77,West,273,15.0,16.0,45,0.00,,---,0.38,VWS V14.01,2013-10-04 23:56:00,
2013-10-04 18:58:00,70.4,48.1,29.77,WNW,291,13.0,16.0,45,0.00,,---,0.38,VWS V14.01,2013-10-04 23:58:00,
2013-10-04 18:59:00,70.4,48.1,29.77,West,278,7.0,18.0,45,0.00,,---,0.38,VWS V14.01,2013-10-04 23:59:00,
2013-10-04 19:00:00,70.3,48.0,29.79,West,279,4.0,11.0,45,0.00,,---,0.38,VWS V14.01,2013-10-05 00:00:00,
2013-10-04 19:01:00,70.1,47.8,29.79,WSW,244,4.0,11.0,45,0.00,,---,0.38,VWS V14.01,2013-10-05 00:01:00,
2013-10-04 19:04:00,69.9,47.0,29.79,West,281,6.0,14.0,44,0.00,,---,0.38,VWS V14.01,2013-10-05 00:04:00,
2013-10-04 19:05:00,69.6,46.8,29.79,WNW,282,10.0,14.0,44,0.00,,---,0.38,VWS V14.01,2013-10-05 00:05:00,
2013-10-04 19:06:00,69.4,46.6,29.79,West,261,16.0,16.0,44,0.00,,---,0.38,VWS V14.01,2013-10-05 00:06:00,
2013-10-04 19:09:00,69.3,46.5,29.79,WNW,291,2.0,16.0,44,0.00,,---,0.38,VWS V14.01,2013-10-05 00:09:00,
2013-10-04 19:10:00,69.1,45.7,29.79,WNW,284,3.0,8.0,43,0.00,,---,0.38,VWS V14.01,2013-10-05 00:10:00,
2013-10-04 19:11:00,68.9,45.5,29.79,WNW,286,5.0,11.0,43,0.00,,---,0.38,VWS V14.01,2013-10-05 00:11:00,
2013-10-04 19:14:00,68.8,45.4,29.79,WNW,282,3.0,11.0,43,0.00,,---,0.38,VWS V14.01,2013-10-05 00:14:00,
2013-10-04 19:16:00,68.6,45.8,29.81,WNW,292,2.0,11.0,44,0.00,,---,0.38,VWS V14.01,2013-10-05 00:16:00,
2013-10-04 19:17:00,68.4,45.7,29.81,WNW,292,2.0,11.0,44,0.00,,---,0.38,VWS V14.01,2013-10-05 00:17:00,
2013-10-04 19:19:00,68.4,45.7,29.81,WNW,282,4.0,11.0,44,0.00,,---,0.38,VWS V14.01,2013-10-05 00:19:00,
2013-10-04 19:21:00,68.3,45.6,29.81,WNW,285,5.0,7.0,44,0.00,,---,0.38,VWS V14.01,2013-10-05 00:21:00,
2013-10-04 19:22:00,68.1,45.4,29.81,WNW,282,6.0,9.0,44,0.00,,---,0.38,VWS V14.01,2013-10-05 00:22:00,
2013-10-04 19:24:00,68.1,46.0,29.81,WNW,294,5.0,9.0,45,0.00,,---,0.38,VWS V14.01,2013-10-05 00:24:00,
2013-10-04 19:25:00,67.9,45.8,29.81,WNW,287,6.0,9.0,45,0.00,,---,0.38,VWS V14.01,2013-10-05 00:25:00,
2013-10-04 19:26:00,67.9,46.4,29.81,West,279,0.0,9.0,46,0.00,,---,0.38,VWS V14.01,2013-10-05 00:26:00,
2013-10-04 19:27:00,67.8,46.3,29.81,WNW,288,13.0,15.0,46,0.00,,---,0.38,VWS V14.01,2013-10-05 00:27:00,
2013-10-04 19:29:00,67.6,44.9,29.81,WNW,283,7.0,16.0,44,0.00,,---,0.38,VWS V14.01,2013-10-05 00:29:00,
2013-10-04 19:30:00,67.4,44.8,29.81,WNW,290,4.0,18.0,44,0.00,,---,0.38,VWS V14.01,2013-10-05 00:30:00,
2013-10-04 19:31:00,67.4,44.8,29.81,West,281,13.0,15.0,44,0.00,,---,0.38,VWS V14.01,2013-10-05 00:31:00,
2013-10-04 19:32:00,67.4,44.8,29.81,West,275,8.0,15.0,44,0.00,,---,0.38,VWS V14.01,2013-10-05 00:32:00,
2013-10-04 19:34:00,67.3,44.7,29.81,WNW,292,6.0,15.0,44,0.00,,---,0.38,VWS V14.01,2013-10-05 00:34:00,
2013-10-04 19:35:00,67.1,44.5,29.81,WNW,289,8.0,15.0,44,0.00,,---,0.38,VWS V14.01,2013-10-05 00:35:00,
2013-10-04 19:36:00,67.1,44.5,29.81,West,272,6.0,16.0,44,0.00,,---,0.38,VWS V14.01,2013-10-05 00:36:00,
2013-10-04 19:37:00,67.1,44.5,29.81,West,265,13.0,16.0,44,0.00,,---,0.38,VWS V14.01,2013-10-05 00:37:00,
2013-10-04 19:39:00,66.9,44.3,29.81,WNW,284,4.0,16.0,44,0.00,,---,0.38,VWS V14.01,2013-10-05 00:39:00,
2013-10-04 19:40:00,66.9,43.7,29.81,West,271,15.0,15.0,43,0.00,,---,0.38,VWS V14.01,2013-10-05 00:40:00,
2013-10-04 19:41:00,66.8,43.6,29.81,West,271,9.0,15.0,43,0.00,,---,0.38,VWS V14.01,2013-10-05 00:41:00,
2013-10-04 19:43:00,66.8,44.2,29.81,WNW,291,10.0,15.0,44,0.00,,---,0.38,VWS V14.01,2013-10-05 00:43:00,
2013-10-04 19:44:00,66.8,44.2,29.82,West,279,12.0,15.0,44,0.00,,---,0.38,VWS V14.01,2013-10-05 00:44:00,
2013-10-04 19:45:00,66.6,43.4,29.82,WNW,290,6.0,18.0,43,0.00,,---,0.38,VWS V14.01,2013-10-05 00:45:00,
2013-10-04 19:46:00,66.6,43.4,29.82,WNW,283,9.0,18.0,43,0.00,,---,0.38,VWS V14.01,2013-10-05 00:46:00,
2013-10-04 19:48:00,66.4,43.2,29.82,West,280,11.0,18.0,43,0.00,,---,0.38,VWS V14.01,2013-10-05 00:48:00,
2013-10-04 19:49:00,66.4,43.8,29.82,WNW,286,4.0,18.0,44,0.00,,---,0.38,VWS V14.01,2013-10-05 00:49:00,
2013-10-04 19:50:00,66.4,43.8,29.82,West,262,7.0,18.0,44,0.00,,---,0.38,VWS V14.01,2013-10-05 00:50:00,
2013-10-04 19:51:00,66.3,43.8,29.82,West,276,10.0,14.0,44,0.00,,---,0.38,VWS V14.01,2013-10-05 00:51:00,
2013-10-04 19:53:00,66.1,43.6,29.82,WNW,290,12.0,14.0,44,0.00,,---,0.38,VWS V14.01,2013-10-05 00:53:00,
2013-10-04 19:54:00,66.0,42.9,29.82,West,267,10.0,17.0,43,0.00,,---,0.38,VWS V14.01,2013-10-05 00:54:00,
2013-10-04 19:55:00,66.0,42.9,29.82,West,279,5.0,17.0,43,0.00,,---,0.38,VWS V14.01,2013-10-05 00:55:00,
2013-10-04 19:57:00,65.6,42.5,29.82,West,267,12.0,19.0,43,0.00,,---,0.38,VWS V14.01,2013-10-05 00:57:00,
2013-10-04 19:58:00,65.6,42.5,29.82,West,268,4.0,19.0,43,0.00,,---,0.38,VWS V14.01,2013-10-05 00:58:00,
2013-10-04 19:59:00,65.5,42.4,29.83,West,274,10.0,19.0,43,0.00,,---,0.38,VWS V14.01,2013-10-05 00:59:00,
2013-10-04 20:00:00,65.3,42.2,29.83,West,281,5.0,19.0,43,0.00,,---,0.38,VWS V14.01,2013-10-05 01:00:00,
2013-10-04 20:02:00,65.2,42.2,29.83,West,279,2.0,16.0,43,0.00,,---,0.38,VWS V14.01,2013-10-05 01:02:00,
2013-10-04 20:03:00,65.2,42.8,29.83,WNW,284,10.0,16.0,44,0.00,,---,0.38,VWS V14.01,2013-10-05 01:03:00,
2013-10-04 20:04:00,65.0,42.6,29.83,WNW,286,4.0,16.0,44,0.00,,---,0.38,VWS V14.01,2013-10-05 01:04:00,
2013-10-04 20:05:00,65.0,42.6,29.83,West,279,12.0,16.0,44,0.00,,---,0.38,VWS V14.01,2013-10-05 01:05:00,
2013-10-04 20:07:00,64.8,42.4,29.83,WSW,249,4.0,16.0,44,0.00,,---,0.38,VWS V14.01,2013-10-05 01:07:00,
2013-10-04 20:08:00,64.7,42.3,29.83,WNW,284,2.0,16.0,44,0.00,,---,0.38,VWS V14.01,2013-10-05 01:08:00,
2013-10-04 20:09:00,64.5,42.7,29.83,West,268,4.0,16.0,45,0.00,,---,0.38,VWS V14.01,2013-10-05 01:09:00,
2013-10-04 20:10:00,64.5,42.1,29.83,WNW,292,9.0,9.0,44,0.00,,---,0.38,VWS V14.01,2013-10-05 01:10:00,
2013-10-04 20:12:00,64.3,42.5,29.83,West,281,5.0,16.0,45,0.00,,---,0.38,VWS V14.01,2013-10-05 01:12:00,
2013-10-04 20:14:00,64.2,41.8,29.83,West,278,9.0,16.0,44,0.00,,---,0.38,VWS V14.01,2013-10-05 01:14:00,
2013-10-04 20:15:00,64.0,41.7,29.84,WNW,288,4.0,21.0,44,0.00,,---,0.38,VWS V14.01,2013-10-05 01:15:00,
2013-10-04 20:16:00,64.0,41.7,29.84,West,281,8.0,21.0,44,0.00,,---,0.38,VWS V14.01,2013-10-05 01:16:00,
2013-10-04 20:17:00,63.9,41.0,29.84,West,266,6.0,21.0,43,0.00,,---,0.38,VWS V14.01,2013-10-05 01:17:00,
2013-10-04 20:19:00,63.7,41.4,29.84,NW,307,13.0,21.0,44,0.00,,---,0.38,VWS V14.01,2013-10-05 01:19:00,
2013-10-04 20:20:00,63.5,40.6,29.84,West,273,13.0,13.0,43,0.00,,---,0.38,VWS V14.01,2013-10-05 01:20:00,
2013-10-04 20:21:00,63.5,40.6,29.84,West,277,6.0,18.0,43,0.00,,---,0.38,VWS V14.01,2013-10-05 01:21:00,
2013-10-04 20:22:00,63.4,40.5,29.84,West,269,11.0,18.0,43,0.00,,---,0.38,VWS V14.01,2013-10-05 01:22:00,
2013-10-04 20:24:00,63.4,40.5,29.84,West,281,9.0,18.0,43,0.00,,---,0.38,VWS V14.01,2013-10-05 01:24:00,
2013-10-04 20:25:00,63.2,40.3,29.84,West,275,5.0,18.0,43,0.00,,---,0.38,VWS V14.01,2013-10-05 01:25:00,
2013-10-04 20:26:00,63.2,40.3,29.84,WNW,288,11.0,18.0,43,0.00,,---,0.38,VWS V14.01,2013-10-05 01:26:00,
2013-10-04 20:27:00,63.1,40.9,29.84,West,281,13.0,18.0,44,0.00,,---,0.38,VWS V14.01,2013-10-05 01:27:00,
2013-10-04 20:29:00,62.9,40.1,29.84,West,261,4.0,18.0,43,0.00,,---,0.38,VWS V14.01,2013-10-05 01:29:00,
2013-10-04 20:30:00,62.9,40.7,29.85,West,266,9.0,18.0,44,0.00,,---,0.38,VWS V14.01,2013-10-05 01:30:00,
2013-10-04 20:31:00,62.9,40.1,29.85,West,269,5.0,13.0,43,0.00,,---,0.38,VWS V14.01,2013-10-05 01:31:00,
2013-10-04 20:33:00,62.7,40.5,29.85,WNW,282,6.0,19.0,44,0.00,,---,0.38,VWS V14.01,2013-10-05 01:33:00,
2013-10-04 20:34:00,62.7,40.5,29.85,West,270,11.0,19.0,44,0.00,,---,0.38,VWS V14.01,2013-10-05 01:34:00,
2013-10-04 20:35:00,62.6,40.4,29.85,West,275,6.0,19.0,44,0.00,,---,0.38,VWS V14.01,2013-10-05 01:35:00,
2013-10-04 20:36:00,62.6,40.4,29.85,WNW,290,3.0,19.0,44,0.00,,---,0.38,VWS V14.01,2013-10-05 01:36:00,
2013-10-04 20:38:00,62.4,40.2,29.85,WNW,294,7.0,19.0,44,0.00,,---,0.38,VWS V14.01,2013-10-05 01:38:00,
2013-10-04 20:39:00,62.4,40.2,29.85,West,281,3.0,19.0,44,0.00,,---,0.38,VWS V14.01,2013-10-05 01:39:00,
2013-10-04 20:40:00,62.4,40.8,29.85,West,280,9.0,19.0,45,0.00,,---,0.38,VWS V14.01,2013-10-05 01:40:00,
2013-10-04 20:41:00,62.4,40.2,29.85,West,279,3.0,7.0,44,0.00,,---,0.38,VWS V14.01,2013-10-05 01:41:00,
2013-10-04 20:42:00,62.3,40.7,29.85,West,271,3.0,7.0,45,0.00,,---,0.38,VWS V14.01,2013-10-05 01:42:00,
2013-10-04 20:44:00,62.1,40.5,29.86,WNW,284,4.0,7.0,45,0.00,,---,0.38,VWS V14.01,2013-10-05 01:44:00,
2013-10-04 20:45:00,62.1,40.0,29.86,West,275,6.0,7.0,44,0.00,,---,0.38,VWS V14.01,2013-10-05 01:45:00,
2013-10-04 20:46:00,62.0,39.9,29.86,WNW,284,4.0,15.0,44,0.00,,---,0.38,VWS V14.01,2013-10-05 01:46:00,
2013-10-04 20:47:00,62.0,39.9,29.86,WNW,284,3.0,15.0,44,0.00,,---,0.38,VWS V14.01,2013-10-05 01:47:00,
2013-10-04 20:50:00,61.6,38.9,29.86,West,277,4.0,15.0,43,0.00,,---,0.38,VWS V14.01,2013-10-05 01:50:00,
2013-10-04 20:51:00,61.6,39.5,29.86,West,277,6.0,9.0,44,0.00,,---,0.38,VWS V14.01,2013-10-05 01:51:00,
2013-10-04 20:53:00,61.5,39.4,29.86,WNW,285,4.0,9.0,44,0.00,,---,0.38,VWS V14.01,2013-10-05 01:53:00,
2013-10-04 20:55:00,61.3,39.2,29.86,West,273,4.0,14.0,44,0.00,,---,0.38,VWS V14.01,2013-10-05 01:55:00,
2013-10-04 20:57:00,61.2,39.1,29.86,WNW,283,6.0,14.0,44,0.00,,---,0.38,VWS V14.01,2013-10-05 01:57:00,
2013-10-04 20:58:00,61.2,39.1,29.86,West,274,4.0,14.0,44,0.00,,---,0.38,VWS V14.01,2013-10-05 01:58:00,
2013-10-04 21:00:00,61.0,39.5,29.87,West,267,15.0,15.0,45,0.00,,---,0.38,VWS V14.01,2013-10-05 02:00:00,
2013-10-04 21:02:00,60.9,39.4,29.87,West,277,3.0,14.0,45,0.00,,---,0.38,VWS V14.01,2013-10-05 02:02:00,
2013-10-04 21:03:00,60.9,39.4,29.87,West,263,2.0,14.0,45,0.00,,---,0.38,VWS V14.01,2013-10-05 02:03:00,
2013-10-04 21:05:00,60.7,39.3,29.87,WNW,284,4.0,14.0,45,0.00,,---,0.38,VWS V14.01,2013-10-05 02:05:00,
2013-10-04 21:07:00,60.7,39.3,29.87,WNW,284,5.0,16.0,45,0.00,,---,0.38,VWS V14.01,2013-10-05 02:07:00,
2013-10-04 21:08:00,60.5,39.1,29.87,WNW,284,4.0,16.0,45,0.00,,---,0.38,VWS V14.01,2013-10-05 02:08:00,
2013-10-04 21:10:00,60.5,39.1,29.87,WNW,286,5.0,16.0,45,0.00,,---,0.38,VWS V14.01,2013-10-05 02:10:00,
2013-10-04 21:12:00,60.5,39.1,29.87,West,271,1.0,7.0,45,0.00,,---,0.38,VWS V14.01,2013-10-05 02:12:00,
2013-10-04 21:14:00,60.4,39.0,29.87,West,263,7.0,9.0,45,0.00,,---,0.38,VWS V14.01,2013-10-05 02:14:00,
2013-10-04 21:15:00,60.4,39.0,29.89,WNW,292,6.0,11.0,45,0.00,,---,0.38,VWS V14.01,2013-10-05 02:15:00,
2013-10-04 21:17:00,60.2,38.2,29.89,West,279,3.0,15.0,44,0.00,,---,0.38,VWS V14.01,2013-10-05 02:17:00,
2013-10-04 21:19:00,60.2,38.8,29.89,WNW,286,6.0,15.0,45,0.00,,---,0.38,VWS V14.01,2013-10-05 02:19:00,
2013-10-04 21:20:00,60.2,38.2,29.89,WNW,282,4.0,15.0,44,0.00,,---,0.38,VWS V14.01,2013-10-05 02:20:00,
2013-10-04 21:22:00,60.1,38.7,29.89,West,271,3.0,16.0,45,0.00,,---,0.38,VWS V14.01,2013-10-05 02:22:00,
2013-10-04 21:23:00,60.1,38.7,29.89,West,271,3.0,16.0,45,0.00,,---,0.38,VWS V14.01,2013-10-05 02:23:00,
2013-10-04 21:24:00,60.1,39.3,29.89,West,273,5.0,16.0,46,0.00,,---,0.38,VWS V14.01,2013-10-05 02:24:00,
2013-10-04 21:25:00,59.9,39.1,29.89,West,281,14.0,19.0,46,0.00,,---,0.38,VWS V14.01,2013-10-05 02:25:00,
2013-10-04 21:26:00,59.9,39.1,29.89,WNW,301,6.0,19.0,46,0.00,,---,0.38,VWS V14.01,2013-10-05 02:26:00,
2013-10-04 21:28:00,59.6,38.8,29.89,WNW,285,6.0,19.0,46,0.00,,---,0.38,VWS V14.01,2013-10-05 02:28:00,
2013-10-04 21:29:00,59.5,39.3,29.89,West,271,10.0,19.0,47,0.00,,---,0.38,VWS V14.01,2013-10-05 02:29:00,
2013-10-04 21:30:00,59.5,39.3,29.89,West,273,5.0,19.0,47,0.00,,---,0.38,VWS V14.01,2013-10-05 02:30:00,
2013-10-04 21:31:00,59.3,39.1,29.89,West,270,7.0,12.0,47,0.00,,---,0.38,VWS V14.01,2013-10-05 02:31:00,
2013-10-04 21:33:00,59.2,39.5,29.89,West,267,4.0,12.0,48,0.00,,---,0.38,VWS V14.01,2013-10-05 02:33:00,
2013-10-04 21:34:00,59.2,39.5,29.89,West,276,5.0,12.0,48,0.00,,---,0.38,VWS V14.01,2013-10-05 02:34:00,
2013-10-04 21:35:00,59.0,38.8,29.89,West,273,7.0,12.0,47,0.00,,---,0.38,VWS V14.01,2013-10-05 02:35:00,
2013-10-04 21:36:00,59.0,39.9,29.89,West,273,4.0,12.0,49,0.00,,---,0.38,VWS V14.01,2013-10-05 02:36:00,
2013-10-04 21:38:00,58.9,39.8,29.89,West,273,3.0,12.0,49,0.00,,---,0.38,VWS V14.01,2013-10-05 02:38:00,
2013-10-04 21:39:00,58.9,40.3,29.89,West,273,2.0,12.0,50,0.00,,---,0.38,VWS V14.01,2013-10-05 02:39:00,
2013-10-04 21:40:00,58.9,40.3,29.89,West,274,4.0,4.0,50,0.00,,---,0.38,VWS V14.01,2013-10-05 02:40:00,
2013-10-04 21:41:00,58.7,40.1,29.89,West,265,6.0,6.0,50,0.00,,---,0.38,VWS V14.01,2013-10-05 02:41:00,
2013-10-04 21:43:00,58.6,39.0,29.89,West,277,7.0,13.0,48,0.00,,---,0.38,VWS V14.01,2013-10-05 02:43:00,
2013-10-04 21:44:00,58.4,38.3,29.92,West,281,5.0,14.0,47,0.00,,---,0.38,VWS V14.01,2013-10-05 02:44:00,
2013-10-04 21:45:00,58.4,38.8,29.92,West,277,6.0,14.0,48,0.00,,---,0.38,VWS V14.01,2013-10-05 02:45:00,
2013-10-04 21:46:00,58.4,38.8,29.92,West,277,7.0,14.0,48,0.00,,---,0.38,VWS V14.01,2013-10-05 02:46:00,
2013-10-04 21:48:00,58.4,38.3,29.92,WNW,282,4.0,14.0,47,0.00,,---,0.38,VWS V14.01,2013-10-05 02:48:00,
2013-10-04 21:49:00,58.4,38.3,29.92,NW,307,4.0,14.0,47,0.00,,---,0.38,VWS V14.01,2013-10-05 02:49:00,
2013-10-04 21:50:00,58.4,38.3,29.92,WNW,285,7.0,9.0,47,0.00,,---,0.38,VWS V14.01,2013-10-05 02:50:00,
2013-10-04 21:51:00,58.4,38.3,29.92,West,273,5.0,9.0,47,0.00,,---,0.38,VWS V14.01,2013-10-05 02:51:00,
2013-10-04 21:53:00,58.3,38.2,29.92,WNW,284,4.0,13.0,47,0.00,,---,0.38,VWS V14.01,2013-10-05 02:53:00,
2013-10-04 21:54:00,58.3,38.2,29.92,WNW,287,3.0,13.0,47,0.00,,---,0.38,VWS V14.01,2013-10-05 02:54:00,
2013-10-04 21:55:00,58.3,38.2,29.92,West,273,4.0,13.0,47,0.00,,---,0.38,VWS V14.01,2013-10-05 02:55:00,
2013-10-04 21:56:00,58.3,38.2,29.92,WNW,282,3.0,16.0,47,0.00,,---,0.38,VWS V14.01,2013-10-05 02:56:00,
2013-10-04 21:58:00,58.3,38.7,29.92,West,271,5.0,16.0,48,0.00,,---,0.38,VWS V14.01,2013-10-05 02:58:00,
2013-10-04 21:59:00,58.3,38.7,29.92,West,271,3.0,16.0,48,0.00,,---,0.38,VWS V14.01,2013-10-05 02:59:00,
2013-10-04 22:00:00,58.1,38.0,29.92,West,271,5.0,7.0,47,0.00,,---,0.38,VWS V14.01,2013-10-05 03:00:00,
2013-10-04 22:01:00,58.1,37.5,29.92,West,281,6.0,7.0,46,0.00,,---,0.38,VWS V14.01,2013-10-05 03:01:00,
2013-10-04 22:03:00,57.8,37.2,29.92,West,266,15.0,16.0,46,0.00,,---,0.38,VWS V14.01,2013-10-05 03:03:00,
2013-10-04 22:04:00,57.8,37.2,29.92,West,279,13.0,16.0,46,0.00,,---,0.38,VWS V14.01,2013-10-05 03:04:00,
2013-10-04 22:05:00,57.8,37.2,29.92,WNW,285,5.0,17.0,46,0.00,,---,0.38,VWS V14.01,2013-10-05 03:05:00,
2013-10-04 22:06:00,57.6,37.0,29.92,WNW,291,10.0,17.0,46,0.00,,---,0.38,VWS V14.01,2013-10-05 03:06:00,
2013-10-04 22:09:00,57.5,36.3,29.92,West,279,6.0,26.0,45,0.00,,---,0.38,VWS V14.01,2013-10-05 03:09:00,
2013-10-04 22:10:00,57.3,36.2,29.92,West,279,4.0,4.0,45,0.00,,---,0.38,VWS V14.01,2013-10-05 03:10:00,
2013-10-04 22:11:00,57.3,36.7,29.92,West,269,7.0,8.0,46,0.00,,---,0.38,VWS V14.01,2013-10-05 03:11:00,
2013-10-04 22:14:00,57.0,35.9,29.92,West,275,9.0,15.0,45,0.00,,---,0.38,VWS V14.01,2013-10-05 03:14:00,
2013-10-04 22:16:00,57.0,36.4,29.93,WNW,283,5.0,18.0,46,0.00,,---,0.38,VWS V14.01,2013-10-05 03:16:00,
2013-10-04 22:19:00,56.7,36.2,29.93,WNW,286,15.0,18.0,46,0.00,,---,0.38,VWS V14.01,2013-10-05 03:19:00,
2013-10-04 22:21:00,56.6,35.5,29.93,West,276,14.0,14.0,45,0.00,,---,0.38,VWS V14.01,2013-10-05 03:21:00,
2013-10-04 22:24:00,56.5,36.0,29.93,West,270,4.0,19.0,46,0.00,,---,0.38,VWS V14.01,2013-10-05 03:24:00,
2013-10-04 22:25:00,56.5,36.5,29.93,West,279,4.0,19.0,47,0.00,,---,0.38,VWS V14.01,2013-10-05 03:25:00,
2013-10-04 22:26:00,56.3,35.8,29.93,West,280,4.0,19.0,46,0.00,,---,0.38,VWS V14.01,2013-10-05 03:26:00,
2013-10-04 22:29:00,56.2,36.3,29.93,West,268,7.0,19.0,47,0.00,,---,0.38,VWS V14.01,2013-10-05 03:29:00,
2013-10-04 22:30:00,56.2,36.3,29.94,West,281,13.0,19.0,47,0.00,,---,0.38,VWS V14.01,2013-10-05 03:30:00,
2013-10-04 22:31:00,56.0,35.5,29.94,WSW,252,8.0,13.0,46,0.00,,---,0.38,VWS V14.01,2013-10-05 03:31:00,
2013-10-04 22:34:00,55.9,36.5,29.94,West,281,3.0,13.0,48,0.00,,---,0.38,VWS V14.01,2013-10-05 03:34:00,
2013-10-04 22:35:00,55.7,36.3,29.94,West,278,13.0,13.0,48,0.00,,---,0.38,VWS V14.01,2013-10-05 03:35:00,
2013-10-04 22:36:00,55.6,36.2,29.94,West,269,6.0,17.0,48,0.00,,---,0.38,VWS V14.01,2013-10-05 03:36:00,
2013-10-04 22:37:00,55.6,35.7,29.94,WNW,285,10.0,17.0,47,0.00,,---,0.38,VWS V14.01,2013-10-05 03:37:00,
2013-10-04 22:39:00,55.3,35.4,29.94,West,281,10.0,22.0,47,0.00,,---,0.38,VWS V14.01,2013-10-05 03:39:00,
2013-10-04 22:40:00,55.3,35.4,29.94,West,280,10.0,12.0,47,0.00,,---,0.38,VWS V14.01,2013-10-05 03:40:00,
2013-10-04 22:41:00,55.1,35.8,29.94,West,281,14.0,15.0,48,0.00,,---,0.38,VWS V14.01,2013-10-05 03:41:00,
2013-10-04 22:42:00,55.1,35.2,29.94,WNW,283,12.0,15.0,47,0.00,,---,0.38,VWS V14.01,2013-10-05 03:42:00,
2013-10-04 22:44:00,55.0,35.7,29.94,WNW,284,10.0,18.0,48,0.00,,---,0.38,VWS V14.01,2013-10-05 03:44:00,
2013-10-04 22:45:00,54.8,35.5,29.94,West,281,14.0,19.0,48,0.00,,---,0.38,VWS V14.01,2013-10-05 03:45:00,
2013-10-04 22:46:00,54.8,35.5,29.94,West,268,10.0,19.0,48,0.00,,---,0.38,VWS V14.01,2013-10-05 03:46:00,
2013-10-04 22:47:00,54.8,35.5,29.94,West,277,3.0,19.0,48,0.00,,---,0.38,VWS V14.01,2013-10-05 03:47:00,
2013-10-04 22:49:00,54.7,35.9,29.94,WNW,282,4.0,19.0,49,0.00,,---,0.38,VWS V14.01,2013-10-05 03:49:00,
2013-10-04 22:50:00,54.7,35.9,29.94,WNW,282,3.0,3.0,49,0.00,,---,0.38,VWS V14.01,2013-10-05 03:50:00,
2013-10-04 22:51:00,54.5,36.3,29.94,West,279,3.0,7.0,50,0.00,,---,0.38,VWS V14.01,2013-10-05 03:51:00,
2013-10-04 22:52:00,54.5,36.3,29.94,West,279,3.0,7.0,50,0.00,,---,0.38,VWS V14.01,2013-10-05 03:52:00,
2013-10-04 22:55:00,54.5,36.3,29.94,WSW,240,3.0,7.0,50,0.00,,---,0.38,VWS V14.01,2013-10-05 03:55:00,
2013-10-04 22:56:00,54.4,36.7,29.94,WSW,240,3.0,7.0,51,0.00,,---,0.38,VWS V14.01,2013-10-05 03:56:00,
2013-10-04 22:57:00,54.4,36.7,29.94,WSW,244,4.0,7.0,51,0.00,,---,0.38,VWS V14.01,2013-10-05 03:57:00,
2013-10-04 23:00:00,54.2,37.0,29.97,WSW,244,4.0,7.0,52,0.00,,---,0.38,VWS V14.01,2013-10-05 04:00:00,
2013-10-04 23:01:00,54.2,36.5,29.97,WSW,244,2.0,5.0,51,0.00,,---,0.38,VWS V14.01,2013-10-05 04:01:00,
2013-10-04 23:06:00,53.9,36.2,29.97,WSW,244,3.0,7.0,51,0.00,,---,0.38,VWS V14.01,2013-10-05 04:06:00,
2013-10-04 23:11:00,53.8,35.6,29.97,West,273,11.0,11.0,50,0.00,,---,0.38,VWS V14.01,2013-10-05 04:11:00,
2013-10-04 23:16:00,53.6,35.4,29.95,WNW,282,2.0,11.0,50,0.00,,---,0.38,VWS V14.01,2013-10-05 04:16:00,
2013-10-04 23:21:00,53.5,35.3,29.95,WNW,284,7.0,13.0,50,0.00,,---,0.38,VWS V14.01,2013-10-05 04:21:00,
2013-10-04 23:26:00,53.2,35.1,29.95,West,277,9.0,14.0,50,0.00,,---,0.38,VWS V14.01,2013-10-05 04:26:00,
2013-10-04 23:31:00,52.9,34.3,29.97,West,277,4.0,17.0,49,0.00,,---,0.38,VWS V14.01,2013-10-05 04:31:00,
2013-10-04 23:36:00,52.8,34.7,29.97,WNW,287,3.0,17.0,50,0.00,,---,0.38,VWS V14.01,2013-10-05 04:36:00,
2013-10-04 23:41:00,52.6,34.5,29.97,West,280,4.0,6.0,50,0.00,,---,0.38,VWS V14.01,2013-10-05 04:41:00,
2013-10-04 23:42:00,52.6,34.5,29.97,WNW,291,4.0,7.0,50,0.00,,---,0.38,VWS V14.01,2013-10-05 04:42:00,
2013-10-04 23:46:00,52.5,34.4,29.97,WNW,286,11.0,13.0,50,0.00,,---,0.38,VWS V14.01,2013-10-05 04:46:00,
2013-10-04 23:47:00,52.5,33.9,29.97,WNW,282,3.0,13.0,49,0.00,,---,0.38,VWS V14.01,2013-10-05 04:47:00,
2013-10-04 23:51:00,52.5,34.4,29.97,West,269,5.0,12.0,50,0.00,,---,0.38,VWS V14.01,2013-10-05 04:51:00,
2013-10-04 23:52:00,52.5,33.9,29.97,West,277,2.0,12.0,49,0.00,,---,0.38,VWS V14.01,2013-10-05 04:52:00,
2013-10-04 23:56:00,52.5,34.9,29.97,West,277,2.0,12.0,51,0.00,,---,0.38,VWS V14.01,2013-10-05 04:56:00,
2013-10-04 23:57:00,52.5,34.9,29.97,West,279,2.0,12.0,51,0.00,,---,0.38,VWS V14.01,2013-10-05 04:57:00,